Time,TemperatureF,DewpointF,PressureIn,WindDirection,WindDirectionDegrees,WindSpeedMPH,WindSpeedGustMPH,Humidity,HourlyPrecipIn,Conditions,Clouds,dailyrainin,SoftwareType,DateUTC
2013-04-25 00:01:00,40.1,30.4,30.09,South,186,3.0,5.0,68,0.00,,---,0.00,VWS V14.00,2013-04-25 04:01:00,
2013-04-25 00:02:00,40.1,30.4,30.09,SSW,209,0.0,5.0,68,0.00,,---,0.00,VWS V14.00,2013-04-25 04:02:00,
2013-04-25 00:05:00,40.1,30.0,30.10,SW,218,1.0,7.0,67,0.00,,---,0.00,VWS V14.00,2013-04-25 04:05:00,
2013-04-25 00:06:00,40.1,30.0,30.10,SW,217,1.0,7.0,67,0.00,,---,0.00,VWS V14.00,2013-04-25 04:06:00,
2013-04-25 00:07:00,40.1,30.0,30.10,SW,229,1.0,7.0,67,0.00,,---,0.00,VWS V14.00,2013-04-25 04:07:00,
2013-04-25 00:08:00,40.1,30.0,30.09,SW,229,1.0,7.0,67,0.00,,---,0.00,VWS V14.00,2013-04-25 04:08:00,
2013-04-25 00:10:00,40.0,29.9,30.10,SW,229,0.0,7.0,67,0.00,,---,0.00,VWS V14.00,2013-04-25 04:10:00,
2013-04-25 00:11:00,40.0,29.9,30.10,SW,229,0.0,7.0,67,0.00,,---,0.00,VWS V14.00,2013-04-25 04:11:00,
2013-04-25 00:12:00,40.0,29.9,30.10,SW,217,3.0,7.0,67,0.00,,---,0.00,VWS V14.00,2013-04-25 04:12:00,
2013-04-25 00:13:00,40.0,29.9,30.10,SW,217,0.0,7.0,67,0.00,,---,0.00,VWS V14.00,2013-04-25 04:13:00,
2013-04-25 00:14:00,40.0,29.9,30.10,SW,217,0.0,7.0,67,0.00,,---,0.00,VWS V14.00,2013-04-25 04:14:00,
2013-04-25 00:16:00,40.0,30.3,30.10,SW,218,0.0,7.0,68,0.00,,---,0.00,VWS V14.00,2013-04-25 04:16:00,
2013-04-25 00:18:00,39.9,30.2,30.10,SSW,209,0.0,7.0,68,0.00,,---,0.00,VWS V14.00,2013-04-25 04:18:00,
2013-04-25 00:20:00,39.9,30.2,30.10,SW,227,1.0,7.0,68,0.00,,---,0.00,VWS V14.00,2013-04-25 04:20:00,
2013-04-25 00:21:00,39.9,30.2,30.10,SW,227,0.0,7.0,68,0.00,,---,0.00,VWS V14.00,2013-04-25 04:21:00,
2013-04-25 00:24:00,39.8,30.5,30.09,SSW,200,0.0,7.0,69,0.00,,---,0.00,VWS V14.00,2013-04-25 04:24:00,
2013-04-25 00:25:00,39.8,30.5,30.09,SW,227,1.0,7.0,69,0.00,,---,0.00,VWS V14.00,2013-04-25 04:25:00,
2013-04-25 00:26:00,39.8,30.5,30.09,WSW,240,0.0,7.0,69,0.00,,---,0.00,VWS V14.00,2013-04-25 04:26:00,
2013-04-25 00:30:00,39.9,30.6,30.10,SW,222,0.0,6.0,69,0.00,,---,0.00,VWS V14.00,2013-04-25 04:30:00,
2013-04-25 00:31:00,39.9,30.6,30.10,SW,225,0.0,6.0,69,0.00,,---,0.00,VWS V14.00,2013-04-25 04:31:00,
2013-04-25 00:33:00,39.9,30.6,30.09,SW,216,0.0,6.0,69,0.00,,---,0.00,VWS V14.00,2013-04-25 04:33:00,
2013-04-25 00:34:00,39.9,30.6,30.09,South,191,1.0,6.0,69,0.00,,---,0.00,VWS V14.00,2013-04-25 04:34:00,
2013-04-25 00:35:00,39.9,30.6,30.09,SSW,210,4.0,6.0,69,0.00,,---,0.00,VWS V14.00,2013-04-25 04:35:00,
2013-04-25 00:36:00,39.9,30.6,30.09,SW,229,2.0,6.0,69,0.00,,---,0.00,VWS V14.00,2013-04-25 04:36:00,
2013-04-25 00:38:00,39.9,30.6,30.09,SW,215,2.0,6.0,69,0.00,,---,0.00,VWS V14.00,2013-04-25 04:38:00,
2013-04-25 00:39:00,39.8,30.5,30.09,SW,217,0.0,6.0,69,0.00,,---,0.00,VWS V14.00,2013-04-25 04:39:00,
2013-04-25 00:43:00,39.8,30.8,30.10,SW,222,3.0,6.0,70,0.00,,---,0.00,VWS V14.00,2013-04-25 04:43:00,
2013-04-25 00:45:00,39.8,30.8,30.09,SW,222,4.0,6.0,70,0.00,,---,0.00,VWS V14.00,2013-04-25 04:45:00,
2013-04-25 00:47:00,39.8,30.8,30.09,SW,222,2.0,6.0,70,0.00,,---,0.00,VWS V14.00,2013-04-25 04:47:00,
2013-04-25 00:48:00,39.7,30.7,30.09,SW,222,0.0,6.0,70,0.00,,---,0.00,VWS V14.00,2013-04-25 04:48:00,
2013-04-25 00:49:00,39.7,30.7,30.09,SW,217,0.0,6.0,70,0.00,,---,0.00,VWS V14.00,2013-04-25 04:49:00,
2013-04-25 00:50:00,39.7,30.7,30.09,SW,218,1.0,6.0,70,0.00,,---,0.00,VWS V14.00,2013-04-25 04:50:00,
2013-04-25 00:53:00,39.7,30.7,30.10,SW,217,0.0,6.0,70,0.00,,---,0.00,VWS V14.00,2013-04-25 04:53:00,
2013-04-25 00:54:00,39.7,30.7,30.10,SW,221,2.0,6.0,70,0.00,,---,0.00,VWS V14.00,2013-04-25 04:54:00,
2013-04-25 00:55:00,39.7,30.7,30.10,SW,222,0.0,6.0,70,0.00,,---,0.00,VWS V14.00,2013-04-25 04:55:00,
2013-04-25 00:56:00,39.6,30.6,30.09,SW,223,3.0,6.0,70,0.00,,---,0.00,VWS V14.00,2013-04-25 04:56:00,
2013-04-25 00:59:00,39.6,31.0,30.09,SW,227,1.0,2.0,71,0.00,,---,0.00,VWS V14.00,2013-04-25 04:59:00,
2013-04-25 01:00:00,39.6,31.0,30.09,WSW,243,4.0,5.0,71,0.00,,---,0.00,VWS V14.00,2013-04-25 05:00:00,
2013-04-25 01:02:00,39.6,31.0,30.09,SW,236,2.0,6.0,71,0.00,,---,0.00,VWS V14.00,2013-04-25 05:02:00,
2013-04-25 01:05:00,39.5,30.9,30.09,SW,223,0.0,6.0,71,0.00,,---,0.00,VWS V14.00,2013-04-25 05:05:00,
2013-04-25 01:06:00,39.6,31.0,30.09,SSW,210,0.0,6.0,71,0.00,,---,0.00,VWS V14.00,2013-04-25 05:06:00,
2013-04-25 01:07:00,39.5,30.9,30.09,SSW,207,0.0,6.0,71,0.00,,---,0.00,VWS V14.00,2013-04-25 05:07:00,
2013-04-25 01:08:00,39.5,31.2,30.09,SSW,207,0.0,6.0,72,0.00,,---,0.00,VWS V14.00,2013-04-25 05:08:00,
2013-04-25 01:11:00,39.5,31.2,30.09,SW,235,2.0,6.0,72,0.00,,---,0.00,VWS V14.00,2013-04-25 05:11:00,
2013-04-25 01:12:00,39.5,30.9,30.09,SW,230,1.0,6.0,71,0.00,,---,0.00,VWS V14.00,2013-04-25 05:12:00,
2013-04-25 01:13:00,39.5,30.9,30.09,SW,229,1.0,6.0,71,0.00,,---,0.00,VWS V14.00,2013-04-25 05:13:00,
2013-04-25 01:15:00,39.5,31.2,30.09,SW,229,1.0,6.0,72,0.00,,---,0.00,VWS V14.00,2013-04-25 05:15:00,
2013-04-25 01:17:00,39.5,31.2,30.09,SW,227,0.0,6.0,72,0.00,,---,0.00,VWS V14.00,2013-04-25 05:17:00,
2013-04-25 01:18:00,39.5,31.2,30.09,SW,227,0.0,6.0,72,0.00,,---,0.00,VWS V14.00,2013-04-25 05:18:00,
2013-04-25 01:19:00,39.5,31.2,30.09,SW,228,0.0,6.0,72,0.00,,---,0.00,VWS V14.00,2013-04-25 05:19:00,
2013-04-25 01:20:00,39.5,31.2,30.09,SW,225,1.0,6.0,72,0.00,,---,0.00,VWS V14.00,2013-04-25 05:20:00,
2013-04-25 01:22:00,39.5,31.2,30.09,SW,225,2.0,6.0,72,0.00,,---,0.00,VWS V14.00,2013-04-25 05:22:00,
2013-04-25 01:23:00,39.5,31.2,30.09,SW,225,3.0,6.0,72,0.00,,---,0.00,VWS V14.00,2013-04-25 05:23:00,
2013-04-25 01:24:00,39.5,31.2,30.09,SW,225,0.0,6.0,72,0.00,,---,0.00,VWS V14.00,2013-04-25 05:24:00,
2013-04-25 01:25:00,39.5,31.2,30.09,SW,225,0.0,6.0,72,0.00,,---,0.00,VWS V14.00,2013-04-25 05:25:00,
2013-04-25 01:28:00,39.5,31.2,30.09,SW,216,2.0,6.0,72,0.00,,---,0.00,VWS V14.00,2013-04-25 05:28:00,
2013-04-25 01:29:00,39.5,31.2,30.09,SSW,209,1.0,1.0,72,0.00,,---,0.00,VWS V14.00,2013-04-25 05:29:00,
2013-04-25 01:30:00,39.5,31.2,30.09,SSW,209,0.0,2.0,72,0.00,,---,0.00,VWS V14.00,2013-04-25 05:30:00,
2013-04-25 01:31:00,39.5,31.2,30.09,SSW,209,0.0,3.0,72,0.00,,---,0.00,VWS V14.00,2013-04-25 05:31:00,
2013-04-25 01:32:00,39.5,31.2,30.09,SW,219,3.0,5.0,72,0.00,,---,0.00,VWS V14.00,2013-04-25 05:32:00,
2013-04-25 01:35:00,39.5,31.6,30.09,SW,225,4.0,5.0,73,0.00,,---,0.00,VWS V14.00,2013-04-25 05:35:00,
2013-04-25 01:36:00,39.5,31.6,30.09,SW,226,5.0,5.0,73,0.00,,---,0.00,VWS V14.00,2013-04-25 05:36:00,
2013-04-25 01:37:00,39.5,31.6,30.09,SW,226,0.0,5.0,73,0.00,,---,0.00,VWS V14.00,2013-04-25 05:37:00,
2013-04-25 01:40:00,39.5,31.6,30.09,SW,230,3.0,5.0,73,0.00,,---,0.00,VWS V14.00,2013-04-25 05:40:00,
2013-04-25 01:41:00,39.5,31.6,30.09,SW,231,2.0,5.0,73,0.00,,---,0.00,VWS V14.00,2013-04-25 05:41:00,
2013-04-25 01:43:00,39.4,31.5,30.09,SW,232,0.0,5.0,73,0.00,,---,0.00,VWS V14.00,2013-04-25 05:43:00,
2013-04-25 01:46:00,39.5,31.6,30.09,SW,223,0.0,5.0,73,0.00,,---,0.00,VWS V14.00,2013-04-25 05:46:00,
2013-04-25 01:48:00,39.5,31.6,30.09,SW,215,0.0,5.0,73,0.00,,---,0.00,VWS V14.00,2013-04-25 05:48:00,
2013-04-25 01:49:00,39.5,31.6,30.09,SW,215,0.0,5.0,73,0.00,,---,0.00,VWS V14.00,2013-04-25 05:49:00,
2013-04-25 01:52:00,39.5,31.6,30.09,SW,216,0.0,5.0,73,0.00,,---,0.00,VWS V14.00,2013-04-25 05:52:00,
2013-04-25 01:53:00,39.5,31.6,30.09,SW,215,0.0,5.0,73,0.00,,---,0.00,VWS V14.00,2013-04-25 05:53:00,
2013-04-25 01:54:00,39.5,31.6,30.09,SW,215,1.0,5.0,73,0.00,,---,0.00,VWS V14.00,2013-04-25 05:54:00,
2013-04-25 01:57:00,39.4,31.8,30.09,SW,221,0.0,5.0,74,0.00,,---,0.00,VWS V14.00,2013-04-25 05:57:00,
2013-04-25 01:58:00,39.5,31.9,30.09,SW,221,2.0,5.0,74,0.00,,---,0.00,VWS V14.00,2013-04-25 05:58:00,
2013-04-25 01:59:00,39.5,31.9,30.08,SW,221,1.0,3.0,74,0.00,,---,0.00,VWS V14.00,2013-04-25 05:59:00,
2013-04-25 02:02:00,39.5,31.9,30.08,SW,219,0.0,3.0,74,0.00,,---,0.00,VWS V14.00,2013-04-25 06:02:00,
2013-04-25 02:03:00,39.5,31.9,30.08,SW,219,0.0,3.0,74,0.00,,---,0.00,VWS V14.00,2013-04-25 06:03:00,
2013-04-25 02:08:00,39.4,31.8,30.08,SW,219,0.0,3.0,74,0.00,,---,0.00,VWS V14.00,2013-04-25 06:08:00,
2013-04-25 02:09:00,39.4,31.8,30.08,SW,219,0.0,3.0,74,0.00,,---,0.00,VWS V14.00,2013-04-25 06:09:00,
2013-04-25 02:10:00,39.5,31.9,30.08,SSW,209,0.0,3.0,74,0.00,,---,0.00,VWS V14.00,2013-04-25 06:10:00,
2013-04-25 02:13:00,39.4,32.2,30.08,SSW,208,0.0,3.0,75,0.00,,---,0.00,VWS V14.00,2013-04-25 06:13:00,
2013-04-25 02:14:00,39.4,32.2,30.08,SSW,208,0.0,3.0,75,0.00,,---,0.00,VWS V14.00,2013-04-25 06:14:00,
2013-04-25 02:15:00,39.4,32.2,30.08,SSW,208,0.0,3.0,75,0.00,,---,0.00,VWS V14.00,2013-04-25 06:15:00,
2013-04-25 02:16:00,39.5,32.2,30.08,SSW,209,1.0,4.0,75,0.00,,---,0.00,VWS V14.00,2013-04-25 06:16:00,
2013-04-25 02:17:00,39.4,32.2,30.08,SSW,209,0.0,4.0,75,0.00,,---,0.00,VWS V14.00,2013-04-25 06:17:00,
2013-04-25 02:19:00,39.4,32.2,30.08,SSW,209,0.0,4.0,75,0.00,,---,0.00,VWS V14.00,2013-04-25 06:19:00,
2013-04-25 02:20:00,39.4,32.2,30.08,SSW,209,2.0,4.0,75,0.00,,---,0.00,VWS V14.00,2013-04-25 06:20:00,
2013-04-25 02:21:00,39.4,32.2,30.08,SSW,209,0.0,4.0,75,0.00,,---,0.00,VWS V14.00,2013-04-25 06:21:00,
2013-04-25 02:22:00,39.4,31.8,30.08,SSW,209,1.0,4.0,74,0.00,,---,0.00,VWS V14.00,2013-04-25 06:22:00,
2013-04-25 02:23:00,39.4,32.2,30.09,SW,227,0.0,4.0,75,0.00,,---,0.00,VWS V14.00,2013-04-25 06:23:00,
2013-04-25 02:24:00,39.3,32.0,30.08,SW,227,0.0,4.0,75,0.00,,---,0.00,VWS V14.00,2013-04-25 06:24:00,
2013-04-25 02:26:00,39.3,32.0,30.08,SW,227,0.0,4.0,75,0.00,,---,0.00,VWS V14.00,2013-04-25 06:26:00,
2013-04-25 02:27:00,39.3,32.0,30.08,SW,227,0.0,4.0,75,0.00,,---,0.00,VWS V14.00,2013-04-25 06:27:00,
2013-04-25 02:28:00,39.3,32.0,30.08,SW,228,0.0,0.0,75,0.00,,---,0.00,VWS V14.00,2013-04-25 06:28:00,
2013-04-25 02:29:00,39.3,32.0,30.08,SW,228,0.0,3.0,75,0.00,,---,0.00,VWS V14.00,2013-04-25 06:29:00,
2013-04-25 02:32:00,39.4,32.2,30.08,SW,227,0.0,3.0,75,0.00,,---,0.00,VWS V14.00,2013-04-25 06:32:00,
2013-04-25 02:33:00,39.4,32.2,30.08,WSW,242,6.0,7.0,75,0.00,,---,0.00,VWS V14.00,2013-04-25 06:33:00,
2013-04-25 02:34:00,39.4,32.2,30.08,SW,233,4.0,7.0,75,0.00,,---,0.00,VWS V14.00,2013-04-25 06:34:00,
2013-04-25 02:38:00,39.5,32.2,30.08,WSW,237,3.0,7.0,75,0.00,,---,0.00,VWS V14.00,2013-04-25 06:38:00,
2013-04-25 02:39:00,39.6,32.3,30.08,SW,227,2.0,7.0,75,0.00,,---,0.00,VWS V14.00,2013-04-25 06:39:00,
2013-04-25 02:41:00,39.6,32.3,30.08,SW,229,2.0,7.0,75,0.00,,---,0.00,VWS V14.00,2013-04-25 06:41:00,
2013-04-25 02:44:00,39.7,32.4,30.08,WSW,242,2.0,7.0,75,0.00,,---,0.00,VWS V14.00,2013-04-25 06:44:00,
2013-04-25 02:45:00,39.8,32.5,30.08,WSW,242,0.0,7.0,75,0.00,,---,0.00,VWS V14.00,2013-04-25 06:45:00,
2013-04-25 02:46:00,39.8,32.5,30.08,WSW,242,4.0,7.0,75,0.00,,---,0.00,VWS V14.00,2013-04-25 06:46:00,
2013-04-25 02:49:00,39.8,32.5,30.08,WSW,248,2.0,7.0,75,0.00,,---,0.00,VWS V14.00,2013-04-25 06:49:00,
2013-04-25 02:52:00,40.0,32.7,30.08,SW,236,6.0,7.0,75,0.00,,---,0.00,VWS V14.00,2013-04-25 06:52:00,
2013-04-25 02:53:00,40.0,32.7,30.08,WSW,237,1.0,7.0,75,0.00,,---,0.00,VWS V14.00,2013-04-25 06:53:00,
2013-04-25 02:54:00,40.0,32.7,30.08,WSW,237,4.0,7.0,75,0.00,,---,0.00,VWS V14.00,2013-04-25 06:54:00,
2013-04-25 02:57:00,40.1,32.5,30.08,SSW,206,1.0,7.0,74,0.00,,---,0.00,VWS V14.00,2013-04-25 06:57:00,
2013-04-25 02:59:00,40.1,32.5,30.08,SW,227,0.0,2.0,74,0.00,,---,0.00,VWS V14.00,2013-04-25 06:59:00,
2013-04-25 03:00:00,40.1,32.5,30.08,SW,228,4.0,6.0,74,0.00,,---,0.00,VWS V14.00,2013-04-25 07:00:00,
2013-04-25 03:04:00,40.1,32.5,30.07,SW,226,1.0,6.0,74,0.00,,---,0.00,VWS V14.00,2013-04-25 07:04:00,
2013-04-25 03:05:00,40.1,32.5,30.07,SW,226,3.0,6.0,74,0.00,,---,0.00,VWS V14.00,2013-04-25 07:05:00,
2013-04-25 03:06:00,40.1,32.5,30.07,SW,229,4.0,6.0,74,0.00,,---,0.00,VWS V14.00,2013-04-25 07:06:00,
2013-04-25 03:08:00,40.1,32.5,30.07,SW,225,1.0,6.0,74,0.00,,---,0.00,VWS V14.00,2013-04-25 07:08:00,
2013-04-25 03:09:00,40.1,32.5,30.07,SW,225,3.0,6.0,74,0.00,,---,0.00,VWS V14.00,2013-04-25 07:09:00,
2013-04-25 03:10:00,40.0,32.4,30.07,SW,225,0.0,6.0,74,0.00,,---,0.00,VWS V14.00,2013-04-25 07:10:00,
2013-04-25 03:11:00,40.1,32.5,30.07,SW,223,1.0,6.0,74,0.00,,---,0.00,VWS V14.00,2013-04-25 07:11:00,
2013-04-25 03:13:00,40.1,32.8,30.07,SW,223,0.0,6.0,75,0.00,,---,0.00,VWS V14.00,2013-04-25 07:13:00,
2013-04-25 03:14:00,40.1,32.8,30.07,SW,223,0.0,6.0,75,0.00,,---,0.00,VWS V14.00,2013-04-25 07:14:00,
2013-04-25 03:15:00,40.1,32.8,30.07,SW,223,0.0,6.0,75,0.00,,---,0.00,VWS V14.00,2013-04-25 07:15:00,
2013-04-25 03:16:00,40.1,32.8,30.07,SW,223,0.0,6.0,75,0.00,,---,0.00,VWS V14.00,2013-04-25 07:16:00,
2013-04-25 03:17:00,40.0,32.7,30.07,SW,223,0.0,6.0,75,0.00,,---,0.00,VWS V14.00,2013-04-25 07:17:00,
2013-04-25 03:20:00,40.0,32.7,30.07,SW,223,0.0,6.0,75,0.00,,---,0.00,VWS V14.00,2013-04-25 07:20:00,
2013-04-25 03:21:00,39.9,32.6,30.07,SW,223,0.0,6.0,75,0.00,,---,0.00,VWS V14.00,2013-04-25 07:21:00,
2013-04-25 03:22:00,39.9,32.6,30.07,SW,222,0.0,6.0,75,0.00,,---,0.00,VWS V14.00,2013-04-25 07:22:00,
2013-04-25 03:25:00,39.8,32.9,30.07,SW,222,0.0,6.0,76,0.00,,---,0.00,VWS V14.00,2013-04-25 07:25:00,
2013-04-25 03:26:00,39.7,32.8,30.07,SW,222,0.0,6.0,76,0.00,,---,0.00,VWS V14.00,2013-04-25 07:26:00,
2013-04-25 03:27:00,39.7,32.8,30.07,SW,222,0.0,6.0,76,0.00,,---,0.00,VWS V14.00,2013-04-25 07:27:00,
2013-04-25 03:28:00,39.7,32.8,30.07,SW,222,1.0,6.0,76,0.00,,---,0.00,VWS V14.00,2013-04-25 07:28:00,
2013-04-25 03:31:00,39.6,33.0,30.07,SW,222,0.0,1.0,77,0.00,,---,0.00,VWS V14.00,2013-04-25 07:31:00,
2013-04-25 03:32:00,39.6,33.0,30.07,SW,221,0.0,3.0,77,0.00,,---,0.00,VWS V14.00,2013-04-25 07:32:00,
2013-04-25 03:33:00,39.6,33.0,30.07,SSW,194,1.0,4.0,77,0.00,,---,0.00,VWS V14.00,2013-04-25 07:33:00,
2013-04-25 03:34:00,39.6,33.0,30.07,SSW,194,0.0,4.0,77,0.00,,---,0.00,VWS V14.00,2013-04-25 07:34:00,
2013-04-25 03:36:00,39.6,33.0,30.06,SSW,195,0.0,4.0,77,0.00,,---,0.00,VWS V14.00,2013-04-25 07:36:00,
2013-04-25 03:38:00,39.6,33.0,30.06,SSW,195,0.0,4.0,77,0.00,,---,0.00,VWS V14.00,2013-04-25 07:38:00,
2013-04-25 03:39:00,39.5,32.9,30.06,SSW,195,1.0,4.0,77,0.00,,---,0.00,VWS V14.00,2013-04-25 07:39:00,
2013-04-25 03:43:00,39.5,32.9,30.06,SW,217,0.0,5.0,77,0.00,,---,0.00,VWS V14.00,2013-04-25 07:43:00,
2013-04-25 03:44:00,39.4,32.8,30.07,SW,217,0.0,5.0,77,0.00,,---,0.00,VWS V14.00,2013-04-25 07:44:00,
2013-04-25 03:45:00,39.4,32.8,30.06,SW,230,0.0,5.0,77,0.00,,---,0.00,VWS V14.00,2013-04-25 07:45:00,
2013-04-25 03:49:00,39.3,32.7,30.06,SW,227,3.0,5.0,77,0.00,,---,0.00,VWS V14.00,2013-04-25 07:49:00,
2013-04-25 03:51:00,39.4,33.1,30.06,SW,225,0.0,5.0,78,0.00,,---,0.00,VWS V14.00,2013-04-25 07:51:00,
2013-04-25 03:52:00,39.4,33.1,30.06,SW,221,1.0,5.0,78,0.00,,---,0.00,VWS V14.00,2013-04-25 07:52:00,
2013-04-25 03:54:00,39.4,33.1,30.06,SW,221,1.0,5.0,78,0.00,,---,0.00,VWS V14.00,2013-04-25 07:54:00,
2013-04-25 03:57:00,39.3,33.0,30.06,SW,221,0.0,5.0,78,0.00,,---,0.00,VWS V14.00,2013-04-25 07:57:00,
2013-04-25 03:58:00,39.3,33.0,30.06,SW,222,0.0,0.0,78,0.00,,---,0.00,VWS V14.00,2013-04-25 07:58:00,
2013-04-25 04:00:00,39.2,32.9,30.06,SW,214,5.0,7.0,78,0.00,,---,0.00,VWS V14.00,2013-04-25 08:00:00,
2013-04-25 04:03:00,39.2,32.9,30.06,SW,222,0.0,7.0,78,0.00,,---,0.00,VWS V14.00,2013-04-25 08:03:00,
2013-04-25 04:04:00,39.1,32.5,30.06,SW,222,1.0,7.0,77,0.00,,---,0.00,VWS V14.00,2013-04-25 08:04:00,
2013-04-25 04:05:00,39.1,32.5,30.06,SW,223,2.0,7.0,77,0.00,,---,0.00,VWS V14.00,2013-04-25 08:05:00,
2013-04-25 04:06:00,39.1,32.5,30.06,SSW,206,0.0,7.0,77,0.00,,---,0.00,VWS V14.00,2013-04-25 08:06:00,
2013-04-25 04:09:00,39.0,32.4,30.07,SW,221,0.0,7.0,77,0.00,,---,0.00,VWS V14.00,2013-04-25 08:09:00,
2013-04-25 04:10:00,38.9,32.3,30.07,SW,219,3.0,7.0,77,0.00,,---,0.00,VWS V14.00,2013-04-25 08:10:00,
2013-04-25 04:11:00,38.9,32.3,30.07,SW,233,5.0,7.0,77,0.00,,---,0.00,VWS V14.00,2013-04-25 08:11:00,
2013-04-25 04:12:00,38.9,32.3,30.07,SW,232,4.0,7.0,77,0.00,,---,0.00,VWS V14.00,2013-04-25 08:12:00,
2013-04-25 04:16:00,38.9,32.6,30.07,SW,230,0.0,7.0,78,0.00,,---,0.00,VWS V14.00,2013-04-25 08:16:00,
2013-04-25 04:17:00,38.9,32.6,30.07,SW,230,0.0,7.0,78,0.00,,---,0.00,VWS V14.00,2013-04-25 08:17:00,
2013-04-25 04:18:00,38.9,32.6,30.07,SW,229,0.0,7.0,78,0.00,,---,0.00,VWS V14.00,2013-04-25 08:18:00,
2013-04-25 04:19:00,38.9,32.6,30.07,SW,229,2.0,7.0,78,0.00,,---,0.00,VWS V14.00,2013-04-25 08:19:00,
2013-04-25 04:22:00,38.9,32.6,30.07,SW,232,0.0,7.0,78,0.00,,---,0.00,VWS V14.00,2013-04-25 08:22:00,
2013-04-25 04:23:00,38.9,32.6,30.07,SW,232,1.0,7.0,78,0.00,,---,0.00,VWS V14.00,2013-04-25 08:23:00,
2013-04-25 04:24:00,38.9,32.6,30.07,SW,233,0.0,7.0,78,0.00,,---,0.00,VWS V14.00,2013-04-25 08:24:00,
2013-04-25 04:26:00,38.9,32.6,30.06,SW,228,3.0,7.0,78,0.00,,---,0.00,VWS V14.00,2013-04-25 08:26:00,
2013-04-25 04:28:00,38.9,32.6,30.06,SW,221,0.0,7.0,78,0.00,,---,0.00,VWS V14.00,2013-04-25 08:28:00,
2013-04-25 04:29:00,39.0,32.7,30.06,SW,215,0.0,2.0,78,0.00,,---,0.00,VWS V14.00,2013-04-25 08:29:00,
2013-04-25 04:31:00,39.0,33.0,30.06,South,187,4.0,5.0,79,0.00,,---,0.00,VWS V14.00,2013-04-25 08:31:00,
2013-04-25 04:32:00,39.1,33.2,30.06,South,183,1.0,5.0,79,0.00,,---,0.00,VWS V14.00,2013-04-25 08:32:00,
2013-04-25 04:33:00,39.2,33.2,30.06,South,183,0.0,6.0,79,0.00,,---,0.00,VWS V14.00,2013-04-25 08:33:00,
2013-04-25 04:34:00,39.2,33.2,30.06,South,184,2.0,6.0,79,0.00,,---,0.00,VWS V14.00,2013-04-25 08:34:00,
2013-04-25 04:35:00,39.1,33.2,30.06,SSW,213,4.0,6.0,79,0.00,,---,0.00,VWS V14.00,2013-04-25 08:35:00,
2013-04-25 04:36:00,39.1,33.2,30.06,SSW,210,2.0,6.0,79,0.00,,---,0.00,VWS V14.00,2013-04-25 08:36:00,
2013-04-25 04:38:00,39.1,32.8,30.06,SW,229,2.0,6.0,78,0.00,,---,0.00,VWS V14.00,2013-04-25 08:38:00,
2013-04-25 04:39:00,39.0,32.7,30.06,SW,227,0.0,6.0,78,0.00,,---,0.00,VWS V14.00,2013-04-25 08:39:00,
2013-04-25 04:40:00,38.9,32.6,30.06,SW,221,2.0,6.0,78,0.00,,---,0.00,VWS V14.00,2013-04-25 08:40:00,
2013-04-25 04:41:00,38.9,32.6,30.06,SW,225,0.0,6.0,78,0.00,,---,0.00,VWS V14.00,2013-04-25 08:41:00,
2013-04-25 04:43:00,38.9,32.6,30.06,SW,225,2.0,6.0,78,0.00,,---,0.00,VWS V14.00,2013-04-25 08:43:00,
2013-04-25 04:44:00,38.8,32.5,30.06,SW,225,2.0,6.0,78,0.00,,---,0.00,VWS V14.00,2013-04-25 08:44:00,
2013-04-25 04:45:00,38.8,32.5,30.06,SW,222,1.0,6.0,78,0.00,,---,0.00,VWS V14.00,2013-04-25 08:45:00,
2013-04-25 04:46:00,38.8,32.5,30.06,SW,219,2.0,6.0,78,0.00,,---,0.00,VWS V14.00,2013-04-25 08:46:00,
2013-04-25 04:47:00,38.8,32.5,30.06,SSW,195,1.0,6.0,78,0.00,,---,0.00,VWS V14.00,2013-04-25 08:47:00,
2013-04-25 04:48:00,38.8,32.9,30.06,SSW,196,0.0,6.0,79,0.00,,---,0.00,VWS V14.00,2013-04-25 08:48:00,
2013-04-25 04:50:00,38.8,32.9,30.06,SSW,198,2.0,6.0,79,0.00,,---,0.00,VWS V14.00,2013-04-25 08:50:00,
2013-04-25 04:51:00,38.8,32.9,30.06,SSW,192,3.0,6.0,79,0.00,,---,0.00,VWS V14.00,2013-04-25 08:51:00,
2013-04-25 04:52:00,38.8,32.9,30.06,SSW,196,2.0,6.0,79,0.00,,---,0.00,VWS V14.00,2013-04-25 08:52:00,
2013-04-25 04:54:00,38.7,32.8,30.06,SW,217,1.0,6.0,79,0.00,,---,0.00,VWS V14.00,2013-04-25 08:54:00,
2013-04-25 04:56:00,38.7,32.8,30.06,SW,217,0.0,6.0,79,0.00,,---,0.00,VWS V14.00,2013-04-25 08:56:00,
2013-04-25 04:58:00,38.7,32.8,30.05,SSW,211,2.0,4.0,79,0.00,,---,0.00,VWS V14.00,2013-04-25 08:58:00,
2013-04-25 05:00:00,38.7,32.8,30.05,SSW,194,0.0,4.0,79,0.00,,---,0.00,VWS V14.00,2013-04-25 09:00:00,
2013-04-25 05:02:00,38.8,32.9,30.05,SSW,194,0.0,4.0,79,0.00,,---,0.00,VWS V14.00,2013-04-25 09:02:00,
2013-04-25 05:03:00,38.7,32.8,30.05,South,191,0.0,4.0,79,0.00,,---,0.00,VWS V14.00,2013-04-25 09:03:00,
2013-04-25 05:04:00,38.7,32.8,30.05,South,191,0.0,4.0,79,0.00,,---,0.00,VWS V14.00,2013-04-25 09:04:00,
2013-04-25 05:05:00,38.7,32.8,30.05,South,185,0.0,4.0,79,0.00,,---,0.00,VWS V14.00,2013-04-25 09:05:00,
2013-04-25 05:07:00,38.8,33.2,30.05,South,184,0.0,4.0,80,0.00,,---,0.00,VWS V14.00,2013-04-25 09:07:00,
2013-04-25 05:08:00,38.8,33.2,30.05,South,184,0.0,4.0,80,0.00,,---,0.00,VWS V14.00,2013-04-25 09:08:00,
2013-04-25 05:09:00,38.7,33.1,30.05,South,184,0.0,4.0,80,0.00,,---,0.00,VWS V14.00,2013-04-25 09:09:00,
2013-04-25 05:10:00,38.7,32.8,30.05,South,188,2.0,4.0,79,0.00,,---,0.00,VWS V14.00,2013-04-25 09:10:00,
2013-04-25 05:13:00,38.7,32.8,30.05,SSW,202,0.0,4.0,79,0.00,,---,0.00,VWS V14.00,2013-04-25 09:13:00,
2013-04-25 05:14:00,38.7,33.1,30.05,SSW,201,0.0,4.0,80,0.00,,---,0.00,VWS V14.00,2013-04-25 09:14:00,
2013-04-25 05:15:00,38.7,33.1,30.05,SSW,200,0.0,4.0,80,0.00,,---,0.00,VWS V14.00,2013-04-25 09:15:00,
2013-04-25 05:16:00,38.7,33.1,30.05,SSW,200,0.0,4.0,80,0.00,,---,0.00,VWS V14.00,2013-04-25 09:16:00,
2013-04-25 05:17:00,38.8,33.2,30.05,SSW,208,4.0,6.0,80,0.00,,---,0.00,VWS V14.00,2013-04-25 09:17:00,
2013-04-25 05:20:00,39.0,33.4,30.05,SSW,198,4.0,6.0,80,0.00,,---,0.00,VWS V14.00,2013-04-25 09:20:00,
2013-04-25 05:21:00,39.0,33.4,30.05,SSW,198,0.0,6.0,80,0.00,,---,0.00,VWS V14.00,2013-04-25 09:21:00,
2013-04-25 05:22:00,39.0,33.4,30.05,SSW,196,0.0,6.0,80,0.00,,---,0.00,VWS V14.00,2013-04-25 09:22:00,
2013-04-25 05:23:00,39.0,33.4,30.05,SSW,196,0.0,6.0,80,0.00,,---,0.00,VWS V14.00,2013-04-25 09:23:00,
2013-04-25 05:25:00,39.0,33.0,30.05,SSW,201,2.0,6.0,79,0.00,,---,0.00,VWS V14.00,2013-04-25 09:25:00,
2013-04-25 05:27:00,39.0,33.4,30.05,SSW,196,1.0,6.0,80,0.00,,---,0.00,VWS V14.00,2013-04-25 09:27:00,
2013-04-25 05:28:00,39.0,33.4,30.05,SSW,192,4.0,6.0,80,0.00,,---,0.00,VWS V14.00,2013-04-25 09:28:00,
2013-04-25 05:31:00,39.0,33.4,30.05,South,182,3.0,3.0,80,0.00,,---,0.00,VWS V14.00,2013-04-25 09:31:00,
2013-04-25 05:32:00,39.0,33.4,30.05,South,187,3.0,3.0,80,0.00,,---,0.00,VWS V14.00,2013-04-25 09:32:00,
2013-04-25 05:33:00,39.0,33.4,30.05,South,188,3.0,4.0,80,0.00,,---,0.00,VWS V14.00,2013-04-25 09:33:00,
2013-04-25 05:34:00,39.0,33.4,30.05,South,187,0.0,4.0,80,0.00,,---,0.00,VWS V14.00,2013-04-25 09:34:00,
2013-04-25 05:36:00,38.9,33.3,30.05,South,188,2.0,4.0,80,0.00,,---,0.00,VWS V14.00,2013-04-25 09:36:00,
2013-04-25 05:38:00,38.9,33.3,30.05,South,190,0.0,4.0,80,0.00,,---,0.00,VWS V14.00,2013-04-25 09:38:00,
2013-04-25 05:39:00,38.9,33.3,30.05,South,184,2.0,4.0,80,0.00,,---,0.00,VWS V14.00,2013-04-25 09:39:00,
2013-04-25 05:41:00,38.8,33.2,30.05,South,184,0.0,4.0,80,0.00,,---,0.00,VWS V14.00,2013-04-25 09:41:00,
2013-04-25 05:42:00,38.8,33.5,30.05,South,185,0.0,4.0,81,0.00,,---,0.00,VWS V14.00,2013-04-25 09:42:00,
2013-04-25 05:43:00,38.8,33.5,30.05,South,186,1.0,4.0,81,0.00,,---,0.00,VWS V14.00,2013-04-25 09:43:00,
2013-04-25 05:47:00,38.7,33.4,30.05,South,184,4.0,4.0,81,0.00,,---,0.00,VWS V14.00,2013-04-25 09:47:00,
2013-04-25 05:48:00,38.6,33.3,30.05,South,184,3.0,4.0,81,0.00,,---,0.00,VWS V14.00,2013-04-25 09:48:00,
2013-04-25 05:49:00,38.6,33.3,30.05,South,171,1.0,4.0,81,0.00,,---,0.00,VWS V14.00,2013-04-25 09:49:00,
2013-04-25 05:52:00,38.5,33.5,30.05,South,172,1.0,5.0,82,0.00,,---,0.00,VWS V14.00,2013-04-25 09:52:00,
2013-04-25 05:53:00,38.5,33.5,30.05,South,172,3.0,5.0,82,0.00,,---,0.00,VWS V14.00,2013-04-25 09:53:00,
2013-04-25 05:54:00,38.4,33.4,30.05,South,174,2.0,5.0,82,0.00,,---,0.00,VWS V14.00,2013-04-25 09:54:00,
2013-04-25 05:56:00,38.4,33.4,30.05,South,172,1.0,5.0,82,0.00,,---,0.00,VWS V14.00,2013-04-25 09:56:00,
2013-04-25 05:58:00,38.4,33.4,30.05,South,169,2.0,5.0,82,0.00,,---,0.00,VWS V14.00,2013-04-25 09:58:00,
2013-04-25 05:59:00,38.3,33.3,30.05,South,170,2.0,3.0,82,0.00,,---,0.00,VWS V14.00,2013-04-25 09:59:00,
2013-04-25 06:01:00,38.3,33.3,30.06,South,169,2.0,4.0,82,0.00,,---,0.00,VWS V14.00,2013-04-25 10:01:00,
2013-04-25 06:04:00,38.3,33.6,30.05,South,188,0.0,5.0,83,0.00,,---,0.00,VWS V14.00,2013-04-25 10:04:00,
2013-04-25 06:06:00,38.4,33.7,30.05,South,190,0.0,5.0,83,0.00,,---,0.00,VWS V14.00,2013-04-25 10:06:00,
2013-04-25 06:07:00,38.3,33.6,30.05,South,190,0.0,5.0,83,0.00,,---,0.00,VWS V14.00,2013-04-25 10:07:00,
2013-04-25 06:09:00,38.3,33.6,30.05,SSW,205,2.0,5.0,83,0.00,,---,0.00,VWS V14.00,2013-04-25 10:09:00,
2013-04-25 06:10:00,38.3,33.6,30.05,SSW,199,3.0,5.0,83,0.00,,---,0.00,VWS V14.00,2013-04-25 10:10:00,
2013-04-25 06:11:00,38.3,33.6,30.05,SSW,194,1.0,5.0,83,0.00,,---,0.00,VWS V14.00,2013-04-25 10:11:00,
2013-04-25 06:13:00,38.4,33.7,30.05,South,189,1.0,5.0,83,0.00,,---,0.00,VWS V14.00,2013-04-25 10:13:00,
2013-04-25 06:16:00,38.4,33.7,30.05,South,190,2.0,5.0,83,0.00,,---,0.00,VWS V14.00,2013-04-25 10:16:00,
2013-04-25 06:18:00,38.5,33.8,30.05,SSW,213,2.0,9.0,83,0.00,,---,0.00,VWS V14.00,2013-04-25 10:18:00,
2013-04-25 06:19:00,38.5,33.8,30.05,SW,221,4.0,9.0,83,0.00,,---,0.00,VWS V14.00,2013-04-25 10:19:00,
2013-04-25 06:20:00,38.5,33.8,30.05,SW,221,1.0,9.0,83,0.00,,---,0.00,VWS V14.00,2013-04-25 10:20:00,
2013-04-25 06:21:00,38.5,33.8,30.05,SSW,210,4.0,9.0,83,0.00,,---,0.00,VWS V14.00,2013-04-25 10:21:00,
2013-04-25 06:22:00,38.5,33.5,30.05,WSW,250,1.0,9.0,82,0.00,,---,0.00,VWS V14.00,2013-04-25 10:22:00,
2013-04-25 06:25:00,38.6,33.6,30.05,SSW,206,5.0,9.0,82,0.00,,---,0.00,VWS V14.00,2013-04-25 10:25:00,
2013-04-25 06:26:00,38.6,33.6,30.05,SSW,209,2.0,9.0,82,0.00,,---,0.00,VWS V14.00,2013-04-25 10:26:00,
2013-04-25 06:27:00,38.6,33.6,30.05,SSW,196,1.0,9.0,82,0.00,,---,0.00,VWS V14.00,2013-04-25 10:27:00,
2013-04-25 06:28:00,38.6,33.6,30.05,SSW,201,0.0,9.0,82,0.00,,---,0.00,VWS V14.00,2013-04-25 10:28:00,
2013-04-25 06:30:00,38.7,33.7,30.05,South,182,2.0,5.0,82,0.00,,---,0.00,VWS V14.00,2013-04-25 10:30:00,
2013-04-25 06:33:00,38.8,33.8,30.05,SW,215,4.0,8.0,82,0.00,,---,0.00,VWS V14.00,2013-04-25 10:33:00,
2013-04-25 06:34:00,38.8,33.8,30.05,SW,214,4.0,8.0,82,0.00,,---,0.00,VWS V14.00,2013-04-25 10:34:00,
2013-04-25 06:36:00,38.8,33.8,30.04,SSW,202,1.0,9.0,82,0.00,,---,0.00,VWS V14.00,2013-04-25 10:36:00,
2013-04-25 06:37:00,38.8,33.8,30.05,SW,221,6.0,9.0,82,0.00,,---,0.00,VWS V14.00,2013-04-25 10:37:00,
2013-04-25 06:39:00,38.8,33.5,30.05,SW,225,1.0,9.0,81,0.00,,---,0.00,VWS V14.00,2013-04-25 10:39:00,
2013-04-25 06:40:00,38.8,33.8,30.05,SW,225,1.0,9.0,82,0.00,,---,0.00,VWS V14.00,2013-04-25 10:40:00,
2013-04-25 06:41:00,38.8,33.5,30.04,SW,222,2.0,9.0,81,0.00,,---,0.00,VWS V14.00,2013-04-25 10:41:00,
2013-04-25 06:42:00,38.8,33.5,30.04,SW,219,1.0,9.0,81,0.00,,---,0.00,VWS V14.00,2013-04-25 10:42:00,
2013-04-25 06:45:00,38.8,33.5,30.04,SSW,207,1.0,9.0,81,0.00,,---,0.00,VWS V14.00,2013-04-25 10:45:00,
2013-04-25 06:46:00,38.8,33.5,30.04,SSW,211,2.0,9.0,81,0.00,,---,0.00,VWS V14.00,2013-04-25 10:46:00,
2013-04-25 06:47:00,38.8,33.5,30.04,SSW,212,1.0,9.0,81,0.00,,---,0.00,VWS V14.00,2013-04-25 10:47:00,
2013-04-25 06:49:00,38.9,33.6,30.05,WSW,245,7.0,9.0,81,0.00,,---,0.00,VWS V14.00,2013-04-25 10:49:00,
2013-04-25 06:52:00,38.9,33.9,30.05,SSW,200,1.0,9.0,82,0.00,,---,0.00,VWS V14.00,2013-04-25 10:52:00,
2013-04-25 06:53:00,38.9,33.6,30.05,SSW,202,0.0,9.0,81,0.00,,---,0.00,VWS V14.00,2013-04-25 10:53:00,
2013-04-25 06:55:00,38.9,33.9,30.04,South,184,0.0,9.0,82,0.00,,---,0.00,VWS V14.00,2013-04-25 10:55:00,
2013-04-25 06:57:00,38.8,33.5,30.05,SW,229,0.0,9.0,81,0.00,,---,0.00,VWS V14.00,2013-04-25 10:57:00,
2013-04-25 06:58:00,38.8,33.5,30.05,SW,230,1.0,9.0,81,0.00,,---,0.00,VWS V14.00,2013-04-25 10:58:00,
2013-04-25 06:59:00,38.8,33.5,30.04,SW,229,3.0,9.0,81,0.00,,---,0.00,VWS V14.00,2013-04-25 10:59:00,
2013-04-25 07:02:00,38.7,33.4,30.05,SW,219,1.0,9.0,81,0.00,,---,0.00,VWS V14.00,2013-04-25 11:02:00,
2013-04-25 07:03:00,38.7,33.4,30.05,SW,219,1.0,9.0,81,0.00,,---,0.00,VWS V14.00,2013-04-25 11:03:00,
2013-04-25 07:05:00,38.7,33.4,30.04,SW,225,3.0,9.0,81,0.00,,---,0.00,VWS V14.00,2013-04-25 11:05:00,
2013-04-25 07:06:00,38.6,33.3,30.05,SW,217,2.0,9.0,81,0.00,,---,0.00,VWS V14.00,2013-04-25 11:06:00,
2013-04-25 07:08:00,38.7,33.4,30.05,SW,228,0.0,9.0,81,0.00,,---,0.00,VWS V14.00,2013-04-25 11:08:00,
2013-04-25 07:09:00,38.7,33.4,30.05,SW,227,0.0,9.0,81,0.00,,---,0.00,VWS V14.00,2013-04-25 11:09:00,
2013-04-25 07:11:00,38.7,33.4,30.05,SSW,212,2.0,9.0,81,0.00,,---,0.00,VWS V14.00,2013-04-25 11:11:00,
2013-04-25 07:12:00,38.8,33.5,30.05,SSW,213,3.0,9.0,81,0.00,,---,0.00,VWS V14.00,2013-04-25 11:12:00,
2013-04-25 07:13:00,38.8,33.8,30.05,SSW,213,1.0,9.0,82,0.00,,---,0.00,VWS V14.00,2013-04-25 11:13:00,
2013-04-25 07:16:00,38.8,33.5,30.04,SSW,211,1.0,9.0,81,0.00,,---,0.00,VWS V14.00,2013-04-25 11:16:00,
2013-04-25 07:17:00,38.8,33.5,30.04,SSW,201,1.0,9.0,81,0.00,,---,0.00,VWS V14.00,2013-04-25 11:17:00,
2013-04-25 07:19:00,38.9,33.6,30.04,West,262,10.0,10.0,81,0.00,,---,0.00,VWS V14.00,2013-04-25 11:19:00,
2013-04-25 07:20:00,38.9,33.9,30.04,West,259,1.0,10.0,82,0.00,,---,0.00,VWS V14.00,2013-04-25 11:20:00,
2013-04-25 07:22:00,38.8,33.5,30.04,SW,220,2.0,10.0,81,0.00,,---,0.00,VWS V14.00,2013-04-25 11:22:00,
2013-04-25 07:23:00,38.8,33.5,30.04,WSW,243,10.0,10.0,81,0.00,,---,0.00,VWS V14.00,2013-04-25 11:23:00,
2013-04-25 07:25:00,38.9,33.6,30.04,WSW,240,7.0,10.0,81,0.00,,---,0.00,VWS V14.00,2013-04-25 11:25:00,
2013-04-25 07:27:00,38.9,33.6,30.04,SW,220,4.0,10.0,81,0.00,,---,0.00,VWS V14.00,2013-04-25 11:27:00,
2013-04-25 07:28:00,38.9,33.6,30.04,SW,222,1.0,1.0,81,0.00,,---,0.00,VWS V14.00,2013-04-25 11:28:00,
2013-04-25 07:30:00,38.9,33.6,30.04,SW,226,3.0,5.0,81,0.00,,---,0.00,VWS V14.00,2013-04-25 11:30:00,
2013-04-25 07:32:00,39.1,34.1,30.04,SSW,207,2.0,5.0,82,0.00,,---,0.00,VWS V14.00,2013-04-25 11:32:00,
2013-04-25 07:34:00,39.2,34.2,30.04,SSW,207,0.0,5.0,82,0.00,,---,0.00,VWS V14.00,2013-04-25 11:34:00,
2013-04-25 07:35:00,39.2,34.2,30.04,SSW,194,6.0,6.0,82,0.00,,---,0.00,VWS V14.00,2013-04-25 11:35:00,
2013-04-25 07:36:00,39.2,34.2,30.04,SW,219,2.0,6.0,82,0.00,,---,0.00,VWS V14.00,2013-04-25 11:36:00,
2013-04-25 07:37:00,39.3,34.0,30.05,WSW,244,1.0,7.0,81,0.00,,---,0.00,VWS V14.00,2013-04-25 11:37:00,
2013-04-25 07:41:00,39.5,34.2,30.05,SSW,192,2.0,7.0,81,0.00,,---,0.00,VWS V14.00,2013-04-25 11:41:00,
2013-04-25 07:42:00,39.6,34.3,30.05,SSW,211,5.0,7.0,81,0.00,,---,0.00,VWS V14.00,2013-04-25 11:42:00,
2013-04-25 07:43:00,39.6,34.3,30.05,SW,216,4.0,7.0,81,0.00,,---,0.00,VWS V14.00,2013-04-25 11:43:00,
2013-04-25 07:45:00,39.7,34.4,30.05,SW,234,0.0,7.0,81,0.00,,---,0.00,VWS V14.00,2013-04-25 11:45:00,
2013-04-25 07:46:00,39.7,34.0,30.05,SW,233,2.0,7.0,80,0.00,,---,0.00,VWS V14.00,2013-04-25 11:46:00,
2013-04-25 07:47:00,39.7,34.0,30.05,SW,236,4.0,7.0,80,0.00,,---,0.00,VWS V14.00,2013-04-25 11:47:00,
2013-04-25 07:48:00,39.7,34.4,30.05,WSW,241,1.0,7.0,81,0.00,,---,0.00,VWS V14.00,2013-04-25 11:48:00,
2013-04-25 07:51:00,39.8,34.1,30.05,West,271,10.0,10.0,80,0.00,,---,0.00,VWS V14.00,2013-04-25 11:51:00,
2013-04-25 07:53:00,39.8,34.1,30.05,WNW,288,3.0,11.0,80,0.00,,---,0.00,VWS V14.00,2013-04-25 11:53:00,
2013-04-25 07:54:00,39.9,34.2,30.05,West,273,9.0,11.0,80,0.00,,---,0.00,VWS V14.00,2013-04-25 11:54:00,
2013-04-25 07:55:00,39.9,34.2,30.05,West,267,7.0,11.0,80,0.00,,---,0.00,VWS V14.00,2013-04-25 11:55:00,
2013-04-25 07:58:00,40.1,34.8,30.05,West,265,5.0,14.0,81,0.00,,---,0.00,VWS V14.00,2013-04-25 11:58:00,
2013-04-25 08:00:00,40.1,34.8,30.05,West,272,6.0,12.0,81,0.01,,---,0.01,VWS V14.00,2013-04-25 12:00:00,
2013-04-25 08:02:00,40.1,35.1,30.05,West,281,11.0,21.0,82,0.02,,---,0.02,VWS V14.00,2013-04-25 12:02:00,
2013-04-25 08:03:00,40.1,35.4,30.05,West,262,6.0,21.0,83,0.02,,---,0.02,VWS V14.00,2013-04-25 12:03:00,
2013-04-25 08:04:00,40.1,35.4,30.05,West,259,6.0,21.0,83,0.02,,---,0.02,VWS V14.00,2013-04-25 12:04:00,
2013-04-25 08:05:00,40.0,35.3,30.05,West,270,7.0,21.0,83,0.02,,---,0.02,VWS V14.00,2013-04-25 12:05:00,
2013-04-25 08:06:00,39.9,35.5,30.05,West,264,5.0,21.0,84,0.02,,---,0.02,VWS V14.00,2013-04-25 12:06:00,
2013-04-25 08:09:00,39.8,35.4,30.05,WSW,248,6.0,21.0,84,0.02,,---,0.02,VWS V14.00,2013-04-25 12:09:00,
2013-04-25 08:12:00,39.7,35.6,30.05,West,273,7.0,21.0,85,0.02,,---,0.02,VWS V14.00,2013-04-25 12:12:00,
2013-04-25 08:13:00,39.7,35.6,30.06,WNW,294,9.0,21.0,85,0.02,,---,0.02,VWS V14.00,2013-04-25 12:13:00,
2013-04-25 08:15:00,39.7,35.6,30.05,West,268,5.0,21.0,85,0.02,,---,0.02,VWS V14.00,2013-04-25 12:15:00,
2013-04-25 08:16:00,39.7,35.6,30.05,West,281,5.0,21.0,85,0.02,,---,0.02,VWS V14.00,2013-04-25 12:16:00,
2013-04-25 08:17:00,39.7,35.9,30.05,West,275,9.0,21.0,86,0.02,,---,0.02,VWS V14.00,2013-04-25 12:17:00,
2013-04-25 08:18:00,39.7,35.9,30.05,West,263,4.0,21.0,86,0.02,,---,0.02,VWS V14.00,2013-04-25 12:18:00,
2013-04-25 08:20:00,39.7,35.9,30.05,West,273,6.0,21.0,86,0.02,,---,0.02,VWS V14.00,2013-04-25 12:20:00,
2013-04-25 08:22:00,39.7,35.9,30.05,West,271,6.0,21.0,86,0.02,,---,0.02,VWS V14.00,2013-04-25 12:22:00,
2013-04-25 08:23:00,39.7,35.9,30.05,West,269,9.0,21.0,86,0.02,,---,0.02,VWS V14.00,2013-04-25 12:23:00,
2013-04-25 08:26:00,39.7,36.2,30.05,West,260,4.0,21.0,87,0.02,,---,0.02,VWS V14.00,2013-04-25 12:26:00,
2013-04-25 08:27:00,39.7,36.2,30.06,West,259,5.0,21.0,87,0.02,,---,0.02,VWS V14.00,2013-04-25 12:27:00,
2013-04-25 08:28:00,39.7,36.2,30.05,West,265,4.0,21.0,87,0.02,,---,0.02,VWS V14.00,2013-04-25 12:28:00,
2013-04-25 08:32:00,39.7,36.2,30.06,West,273,9.0,13.0,87,0.02,,---,0.02,VWS V14.00,2013-04-25 12:32:00,
2013-04-25 08:33:00,39.7,36.2,30.06,WSW,246,6.0,13.0,87,0.02,,---,0.02,VWS V14.00,2013-04-25 12:33:00,
2013-04-25 08:34:00,39.8,36.2,30.06,West,268,4.0,13.0,87,0.02,,---,0.02,VWS V14.00,2013-04-25 12:34:00,
2013-04-25 08:35:00,39.8,36.2,30.06,West,269,7.0,13.0,87,0.02,,---,0.02,VWS V14.00,2013-04-25 12:35:00,
2013-04-25 08:37:00,39.8,36.5,30.06,West,269,4.0,13.0,88,0.02,,---,0.02,VWS V14.00,2013-04-25 12:37:00,
2013-04-25 08:38:00,39.8,36.5,30.06,West,267,2.0,13.0,88,0.02,,---,0.02,VWS V14.00,2013-04-25 12:38:00,
2013-04-25 08:40:00,39.9,36.6,30.06,West,269,10.0,13.0,88,0.02,,---,0.02,VWS V14.00,2013-04-25 12:40:00,
2013-04-25 08:41:00,39.9,36.6,30.06,West,275,7.0,13.0,88,0.02,,---,0.02,VWS V14.00,2013-04-25 12:41:00,
2013-04-25 08:42:00,39.9,36.6,30.06,West,259,7.0,13.0,88,0.02,,---,0.02,VWS V14.00,2013-04-25 12:42:00,
2013-04-25 08:43:00,40.0,36.7,30.06,WSW,247,6.0,13.0,88,0.02,,---,0.02,VWS V14.00,2013-04-25 12:43:00,
2013-04-25 08:44:00,40.0,36.7,30.06,West,271,9.0,13.0,88,0.02,,---,0.02,VWS V14.00,2013-04-25 12:44:00,
2013-04-25 08:45:00,40.1,36.8,30.06,West,277,4.0,13.0,88,0.02,,---,0.02,VWS V14.00,2013-04-25 12:45:00,
2013-04-25 08:47:00,40.2,36.9,30.06,WSW,254,9.0,13.0,88,0.02,,---,0.02,VWS V14.00,2013-04-25 12:47:00,
2013-04-25 08:48:00,40.2,36.9,30.06,WNW,286,9.0,13.0,88,0.02,,---,0.02,VWS V14.00,2013-04-25 12:48:00,
2013-04-25 08:50:00,40.3,37.0,30.06,West,261,5.0,13.0,88,0.02,,---,0.02,VWS V14.00,2013-04-25 12:50:00,
2013-04-25 08:53:00,40.4,37.1,30.06,WSW,247,5.0,13.0,88,0.02,,---,0.02,VWS V14.00,2013-04-25 12:53:00,
2013-04-25 08:54:00,40.4,37.1,30.06,West,265,3.0,13.0,88,0.02,,---,0.02,VWS V14.00,2013-04-25 12:54:00,
2013-04-25 08:56:00,40.4,37.1,30.06,West,277,9.0,13.0,88,0.02,,---,0.02,VWS V14.00,2013-04-25 12:56:00,
2013-04-25 08:57:00,40.5,37.2,30.06,West,275,3.0,13.0,88,0.02,,---,0.02,VWS V14.00,2013-04-25 12:57:00,
2013-04-25 08:58:00,40.5,37.2,30.06,WSW,244,4.0,13.0,88,0.02,,---,0.02,VWS V14.00,2013-04-25 12:58:00,
2013-04-25 09:00:00,40.6,37.3,30.06,West,268,6.0,9.0,88,0.01,,---,0.02,VWS V14.00,2013-04-25 13:00:00,
2013-04-25 09:01:00,40.6,37.3,30.06,WSW,254,6.0,9.0,88,0.01,,---,0.02,VWS V14.00,2013-04-25 13:01:00,
2013-04-25 09:05:00,40.8,37.5,30.06,West,271,2.0,9.0,88,0.01,,---,0.02,VWS V14.00,2013-04-25 13:05:00,
2013-04-25 09:06:00,40.8,37.5,30.06,West,260,5.0,9.0,88,0.01,,---,0.02,VWS V14.00,2013-04-25 13:06:00,
2013-04-25 09:07:00,40.8,37.5,30.06,WSW,258,4.0,9.0,88,0.01,,---,0.02,VWS V14.00,2013-04-25 13:07:00,
2013-04-25 09:11:00,40.9,37.6,30.06,WSW,237,7.0,11.0,88,0.01,,---,0.02,VWS V14.00,2013-04-25 13:11:00,
2013-04-25 09:12:00,40.9,37.6,30.06,WSW,241,1.0,11.0,88,0.01,,---,0.02,VWS V14.00,2013-04-25 13:12:00,
2013-04-25 09:13:00,40.9,37.6,30.06,SSW,192,4.0,11.0,88,0.01,,---,0.02,VWS V14.00,2013-04-25 13:13:00,
2013-04-25 09:14:00,41.0,37.7,30.06,SW,225,8.0,11.0,88,0.01,,---,0.02,VWS V14.00,2013-04-25 13:14:00,
2013-04-25 09:18:00,41.0,37.7,30.06,WSW,257,3.0,11.0,88,0.02,,---,0.03,VWS V14.00,2013-04-25 13:18:00,
2013-04-25 09:19:00,41.0,37.7,30.06,West,278,9.0,11.0,88,0.02,,---,0.03,VWS V14.00,2013-04-25 13:19:00,
2013-04-25 09:20:00,40.9,37.6,30.06,WSW,244,5.0,12.0,88,0.02,,---,0.03,VWS V14.00,2013-04-25 13:20:00,
2013-04-25 09:23:00,40.9,37.6,30.06,WSW,248,3.0,12.0,88,0.02,,---,0.03,VWS V14.00,2013-04-25 13:23:00,
2013-04-25 09:24:00,41.0,37.7,30.06,West,267,4.0,12.0,88,0.02,,---,0.03,VWS V14.00,2013-04-25 13:24:00,
2013-04-25 09:25:00,41.0,37.7,30.06,WSW,245,2.0,12.0,88,0.02,,---,0.03,VWS V14.00,2013-04-25 13:25:00,
2013-04-25 09:26:00,40.9,37.3,30.06,SW,232,6.0,12.0,87,0.02,,---,0.03,VWS V14.00,2013-04-25 13:26:00,
2013-04-25 09:29:00,41.0,37.4,30.07,SW,235,2.0,6.0,87,0.01,,---,0.03,VWS V14.00,2013-04-25 13:29:00,
2013-04-25 09:30:00,41.0,37.4,30.06,WSW,243,6.0,7.0,87,0.01,,---,0.03,VWS V14.00,2013-04-25 13:30:00,
2013-04-25 09:31:00,41.0,37.4,30.06,WSW,240,2.0,7.0,87,0.01,,---,0.03,VWS V14.00,2013-04-25 13:31:00,
2013-04-25 09:32:00,41.0,37.4,30.06,WSW,240,7.0,7.0,87,0.01,,---,0.03,VWS V14.00,2013-04-25 13:32:00,
2013-04-25 09:37:00,41.0,37.4,30.06,WSW,257,4.0,11.0,87,0.01,,---,0.03,VWS V14.00,2013-04-25 13:37:00,
2013-04-25 09:38:00,41.1,37.8,30.06,WSW,240,4.0,11.0,88,0.01,,---,0.03,VWS V14.00,2013-04-25 13:38:00,
2013-04-25 09:39:00,41.1,37.8,30.06,West,265,3.0,11.0,88,0.01,,---,0.03,VWS V14.00,2013-04-25 13:39:00,
2013-04-25 09:42:00,41.1,37.5,30.07,WSW,258,3.0,11.0,87,0.01,,---,0.03,VWS V14.00,2013-04-25 13:42:00,
2013-04-25 09:43:00,41.2,37.6,30.07,West,268,7.0,13.0,87,0.01,,---,0.03,VWS V14.00,2013-04-25 13:43:00,
2013-04-25 09:44:00,41.2,37.6,30.07,West,271,17.0,18.0,87,0.01,,---,0.03,VWS V14.00,2013-04-25 13:44:00,
2013-04-25 09:45:00,41.2,37.6,30.07,WSW,257,7.0,19.0,87,0.01,,---,0.03,VWS V14.00,2013-04-25 13:45:00,
2013-04-25 09:47:00,41.3,37.7,30.07,West,264,5.0,19.0,87,0.01,,---,0.03,VWS V14.00,2013-04-25 13:47:00,
2013-04-25 09:49:00,41.4,37.8,30.07,West,274,4.0,19.0,87,0.01,,---,0.03,VWS V14.00,2013-04-25 13:49:00,
2013-04-25 09:50:00,41.5,37.9,30.07,West,277,3.0,19.0,87,0.01,,---,0.03,VWS V14.00,2013-04-25 13:50:00,
2013-04-25 09:51:00,41.6,38.0,30.07,West,260,2.0,19.0,87,0.01,,---,0.03,VWS V14.00,2013-04-25 13:51:00,
2013-04-25 09:54:00,41.6,37.7,30.08,West,271,12.0,21.0,86,0.01,,---,0.03,VWS V14.00,2013-04-25 13:54:00,
2013-04-25 09:55:00,41.6,37.7,30.08,West,267,10.0,21.0,86,0.01,,---,0.03,VWS V14.00,2013-04-25 13:55:00,
2013-04-25 09:56:00,41.6,37.7,30.08,West,276,4.0,21.0,86,0.01,,---,0.03,VWS V14.00,2013-04-25 13:56:00,
2013-04-25 09:57:00,41.6,37.7,30.08,SW,232,3.0,21.0,86,0.01,,---,0.03,VWS V14.00,2013-04-25 13:57:00,
2013-04-25 10:00:00,41.6,37.7,30.08,West,259,14.0,18.0,86,0.01,,---,0.03,VWS V14.00,2013-04-25 14:00:00,
2013-04-25 10:02:00,41.6,37.7,30.08,WSW,254,14.0,18.0,86,0.01,,---,0.03,VWS V14.00,2013-04-25 14:02:00,
2013-04-25 10:03:00,41.6,37.7,30.08,West,269,5.0,18.0,86,0.01,,---,0.03,VWS V14.00,2013-04-25 14:03:00,
2013-04-25 10:04:00,41.6,37.7,30.08,West,270,5.0,18.0,86,0.01,,---,0.03,VWS V14.00,2013-04-25 14:04:00,
2013-04-25 10:05:00,41.7,37.8,30.08,West,279,10.0,18.0,86,0.01,,---,0.03,VWS V14.00,2013-04-25 14:05:00,
2013-04-25 10:07:00,41.8,37.9,30.07,West,265,3.0,18.0,86,0.01,,---,0.03,VWS V14.00,2013-04-25 14:07:00,
2013-04-25 10:08:00,41.8,37.9,30.07,West,275,15.0,18.0,86,0.01,,---,0.03,VWS V14.00,2013-04-25 14:08:00,
2013-04-25 10:09:00,41.9,38.0,30.08,West,276,10.0,18.0,86,0.01,,---,0.03,VWS V14.00,2013-04-25 14:09:00,
2013-04-25 10:10:00,42.0,38.1,30.08,West,280,9.0,18.0,86,0.01,,---,0.03,VWS V14.00,2013-04-25 14:10:00,
2013-04-25 10:12:00,42.2,38.3,30.07,West,270,8.0,18.0,86,0.01,,---,0.03,VWS V14.00,2013-04-25 14:12:00,
2013-04-25 10:13:00,42.3,38.4,30.08,WNW,291,7.0,18.0,86,0.01,,---,0.03,VWS V14.00,2013-04-25 14:13:00,
2013-04-25 10:14:00,42.3,38.4,30.08,WNW,294,9.0,18.0,86,0.01,,---,0.03,VWS V14.00,2013-04-25 14:14:00,
2013-04-25 10:15:00,42.4,38.5,30.08,West,276,9.0,18.0,86,0.01,,---,0.03,VWS V14.00,2013-04-25 14:15:00,
2013-04-25 10:18:00,42.4,38.5,30.08,WSW,242,9.0,18.0,86,0.01,,---,0.03,VWS V14.00,2013-04-25 14:18:00,
2013-04-25 10:20:00,42.3,38.4,30.08,West,269,10.0,18.0,86,0.01,,---,0.03,VWS V14.00,2013-04-25 14:20:00,
2013-04-25 10:21:00,42.2,38.3,30.08,West,274,7.0,18.0,86,0.02,,---,0.04,VWS V14.00,2013-04-25 14:21:00,
2013-04-25 10:22:00,42.1,38.2,30.08,West,277,10.0,18.0,86,0.02,,---,0.04,VWS V14.00,2013-04-25 14:22:00,
2013-04-25 10:23:00,42.0,38.1,30.08,West,271,11.0,18.0,86,0.02,,---,0.04,VWS V14.00,2013-04-25 14:23:00,
2013-04-25 10:24:00,42.0,38.1,30.08,West,276,14.0,18.0,86,0.02,,---,0.04,VWS V14.00,2013-04-25 14:24:00,
2013-04-25 10:25:00,41.8,37.9,30.08,West,261,13.0,18.0,86,0.02,,---,0.04,VWS V14.00,2013-04-25 14:25:00,
2013-04-25 10:28:00,41.7,37.8,30.08,West,281,17.0,17.0,86,0.01,,---,0.04,VWS V14.00,2013-04-25 14:28:00,
2013-04-25 10:29:00,41.7,37.8,30.08,West,266,5.0,17.0,86,0.01,,---,0.04,VWS V14.00,2013-04-25 14:29:00,
2013-04-25 10:30:00,41.6,37.7,30.08,West,265,5.0,17.0,86,0.01,,---,0.04,VWS V14.00,2013-04-25 14:30:00,
2013-04-25 10:31:00,41.7,38.1,30.08,WNW,282,11.0,17.0,87,0.01,,---,0.04,VWS V14.00,2013-04-25 14:31:00,
2013-04-25 10:32:00,41.7,38.1,30.08,West,263,4.0,17.0,87,0.01,,---,0.04,VWS V14.00,2013-04-25 14:32:00,
2013-04-25 10:34:00,41.8,38.2,30.08,WSW,257,4.0,17.0,87,0.01,,---,0.04,VWS V14.00,2013-04-25 14:34:00,
2013-04-25 10:35:00,41.8,38.2,30.09,West,268,7.0,17.0,87,0.01,,---,0.04,VWS V14.00,2013-04-25 14:35:00,
2013-04-25 10:36:00,41.8,38.2,30.09,West,272,4.0,17.0,87,0.01,,---,0.04,VWS V14.00,2013-04-25 14:36:00,
2013-04-25 10:38:00,41.8,38.5,30.09,WSW,254,5.0,17.0,88,0.01,,---,0.04,VWS V14.00,2013-04-25 14:38:00,
2013-04-25 10:39:00,41.8,38.2,30.08,West,277,3.0,17.0,87,0.01,,---,0.04,VWS V14.00,2013-04-25 14:39:00,
2013-04-25 10:40:00,41.8,38.2,30.08,WSW,254,8.0,17.0,87,0.01,,---,0.04,VWS V14.00,2013-04-25 14:40:00,
2013-04-25 10:41:00,41.9,38.6,30.08,WNW,289,5.0,17.0,88,0.01,,---,0.04,VWS V14.00,2013-04-25 14:41:00,
2013-04-25 10:42:00,41.9,38.6,30.08,WSW,244,7.0,17.0,88,0.01,,---,0.04,VWS V14.00,2013-04-25 14:42:00,
2013-04-25 10:43:00,42.0,38.7,30.09,West,261,7.0,17.0,88,0.01,,---,0.04,VWS V14.00,2013-04-25 14:43:00,
2013-04-25 10:44:00,42.1,38.8,30.09,West,281,6.0,17.0,88,0.01,,---,0.04,VWS V14.00,2013-04-25 14:44:00,
2013-04-25 10:45:00,42.1,38.8,30.09,West,279,4.0,17.0,88,0.01,,---,0.04,VWS V14.00,2013-04-25 14:45:00,
2013-04-25 10:49:00,42.3,39.0,30.08,West,277,6.0,17.0,88,0.01,,---,0.04,VWS V14.00,2013-04-25 14:49:00,
2013-04-25 10:50:00,42.3,39.0,30.08,West,270,5.0,17.0,88,0.01,,---,0.04,VWS V14.00,2013-04-25 14:50:00,
2013-04-25 10:51:00,42.4,39.1,30.08,WSW,249,6.0,17.0,88,0.01,,---,0.04,VWS V14.00,2013-04-25 14:51:00,
2013-04-25 10:54:00,42.8,39.5,30.08,West,281,9.0,17.0,88,0.01,,---,0.04,VWS V14.00,2013-04-25 14:54:00,
2013-04-25 10:55:00,42.9,39.6,30.08,WSW,257,10.0,17.0,88,0.01,,---,0.04,VWS V14.00,2013-04-25 14:55:00,
2013-04-25 10:56:00,43.1,39.8,30.09,West,273,3.0,17.0,88,0.01,,---,0.04,VWS V14.00,2013-04-25 14:56:00,
2013-04-25 10:59:00,43.7,40.4,30.09,West,275,4.0,9.0,88,0.01,,---,0.04,VWS V14.00,2013-04-25 14:59:00,
2013-04-25 11:00:00,43.9,40.6,30.09,West,264,6.0,16.0,88,0.01,,---,0.04,VWS V14.00,2013-04-25 15:00:00,
2013-04-25 11:01:00,44.0,40.7,30.08,West,277,13.0,16.0,88,0.01,,---,0.04,VWS V14.00,2013-04-25 15:01:00,
2013-04-25 11:05:00,44.6,40.7,30.09,West,267,6.0,16.0,86,0.01,,---,0.04,VWS V14.00,2013-04-25 15:05:00,
2013-04-25 11:06:00,44.6,40.7,30.09,West,281,8.0,16.0,86,0.01,,---,0.04,VWS V14.00,2013-04-25 15:06:00,
2013-04-25 11:07:00,45.0,41.1,30.09,West,269,9.0,16.0,86,0.01,,---,0.04,VWS V14.00,2013-04-25 15:07:00,
2013-04-25 11:10:00,45.4,41.2,30.09,WNW,288,3.0,20.0,85,0.01,,---,0.04,VWS V14.00,2013-04-25 15:10:00,
2013-04-25 11:12:00,45.4,40.9,30.09,NW,313,7.0,20.0,84,0.01,,---,0.04,VWS V14.00,2013-04-25 15:12:00,
2013-04-25 11:13:00,45.5,40.7,30.09,NW,314,12.0,20.0,83,0.01,,---,0.04,VWS V14.00,2013-04-25 15:13:00,
2013-04-25 11:14:00,45.6,40.7,30.09,WNW,283,19.0,20.0,83,0.01,,---,0.04,VWS V14.00,2013-04-25 15:14:00,
2013-04-25 11:16:00,45.8,40.6,30.09,WNW,302,10.0,20.0,82,0.01,,---,0.04,VWS V14.00,2013-04-25 15:16:00,
2013-04-25 11:17:00,45.8,40.6,30.09,West,280,7.0,20.0,82,0.01,,---,0.04,VWS V14.00,2013-04-25 15:17:00,
2013-04-25 11:18:00,45.8,40.3,30.09,West,268,6.0,20.0,81,0.01,,---,0.04,VWS V14.00,2013-04-25 15:18:00,
2013-04-25 11:20:00,45.8,40.3,30.09,West,279,16.0,20.0,81,0.01,,---,0.04,VWS V14.00,2013-04-25 15:20:00,
2013-04-25 11:21:00,45.8,40.0,30.09,WNW,294,5.0,20.0,80,0.01,,---,0.04,VWS V14.00,2013-04-25 15:21:00,
2013-04-25 11:22:00,45.8,40.0,30.09,West,263,17.0,21.0,80,0.01,,---,0.04,VWS V14.00,2013-04-25 15:22:00,
2013-04-25 11:25:00,46.1,39.6,30.09,West,276,16.0,23.0,78,0.01,,---,0.04,VWS V14.00,2013-04-25 15:25:00,
2013-04-25 11:26:00,46.2,39.7,30.09,NW,304,13.0,23.0,78,0.01,,---,0.04,VWS V14.00,2013-04-25 15:26:00,
2013-04-25 11:27:00,46.2,39.7,30.09,West,267,15.0,23.0,78,0.01,,---,0.04,VWS V14.00,2013-04-25 15:27:00,
2013-04-25 11:29:00,46.0,39.5,30.09,WNW,292,14.0,14.0,78,0.00,,---,0.04,VWS V14.00,2013-04-25 15:29:00,
2013-04-25 11:31:00,45.4,39.3,30.10,NNW,340,10.0,22.0,79,0.00,,---,0.04,VWS V14.00,2013-04-25 15:31:00,
2013-04-25 11:32:00,45.2,38.8,30.10,NW,325,11.0,22.0,78,0.00,,---,0.04,VWS V14.00,2013-04-25 15:32:00,
2013-04-25 11:33:00,45.0,38.6,30.10,NW,319,15.0,22.0,78,0.00,,---,0.04,VWS V14.00,2013-04-25 15:33:00,
2013-04-25 11:34:00,44.8,38.7,30.10,North,350,10.0,22.0,79,0.00,,---,0.04,VWS V14.00,2013-04-25 15:34:00,
2013-04-25 11:37:00,44.2,38.4,30.10,NW,325,12.0,22.0,80,0.00,,---,0.04,VWS V14.00,2013-04-25 15:37:00,
2013-04-25 11:38:00,44.0,38.2,30.10,NNW,342,10.0,22.0,80,0.00,,---,0.04,VWS V14.00,2013-04-25 15:38:00,
2013-04-25 11:39:00,44.0,38.2,30.10,NNW,346,7.0,22.0,80,0.00,,---,0.04,VWS V14.00,2013-04-25 15:39:00,
2013-04-25 11:40:00,44.0,38.2,30.10,NW,315,14.0,22.0,80,0.00,,---,0.04,VWS V14.00,2013-04-25 15:40:00,
2013-04-25 11:43:00,44.1,38.7,30.10,NW,324,9.0,22.0,81,0.00,,---,0.04,VWS V14.00,2013-04-25 15:43:00,
2013-04-25 11:45:00,44.2,38.8,30.10,WNW,297,7.0,22.0,81,0.00,,---,0.04,VWS V14.00,2013-04-25 15:45:00,
2013-04-25 11:46:00,44.3,38.8,30.10,WSW,257,6.0,22.0,81,0.00,,---,0.04,VWS V14.00,2013-04-25 15:46:00,
2013-04-25 11:48:00,44.6,39.1,30.10,WNW,296,9.0,22.0,81,0.00,,---,0.04,VWS V14.00,2013-04-25 15:48:00,
2013-04-25 11:50:00,45.0,39.2,30.10,WNW,297,5.0,22.0,80,0.00,,---,0.04,VWS V14.00,2013-04-25 15:50:00,
2013-04-25 11:52:00,45.4,39.9,30.11,WNW,300,19.0,22.0,81,0.00,,---,0.04,VWS V14.00,2013-04-25 15:52:00,
2013-04-25 11:53:00,45.6,39.8,30.10,WNW,284,13.0,22.0,80,0.00,,---,0.04,VWS V14.00,2013-04-25 15:53:00,
2013-04-25 11:54:00,45.8,39.7,30.10,WSW,256,9.0,22.0,79,0.00,,---,0.04,VWS V14.00,2013-04-25 15:54:00,
2013-04-25 11:55:00,45.9,39.8,30.10,NW,313,4.0,22.0,79,0.00,,---,0.04,VWS V14.00,2013-04-25 15:55:00,
2013-04-25 11:57:00,46.0,39.9,30.11,NW,314,6.0,22.0,79,0.00,,---,0.04,VWS V14.00,2013-04-25 15:57:00,
2013-04-25 11:58:00,46.0,39.5,30.11,WNW,284,12.0,22.0,78,0.01,,---,0.05,VWS V14.00,2013-04-25 15:58:00,
2013-04-25 12:00:00,45.9,39.1,30.11,NNW,329,17.0,23.0,77,0.01,,---,0.05,VWS V14.00,2013-04-25 16:00:00,
2013-04-25 12:02:00,45.4,38.3,30.11,NW,321,18.0,23.0,76,0.01,,---,0.05,VWS V14.00,2013-04-25 16:02:00,
2013-04-25 12:03:00,45.3,38.2,30.11,NW,304,15.0,23.0,76,0.01,,---,0.05,VWS V14.00,2013-04-25 16:03:00,
2013-04-25 12:04:00,45.2,38.1,30.11,WNW,291,12.0,23.0,76,0.01,,---,0.05,VWS V14.00,2013-04-25 16:04:00,
2013-04-25 12:05:00,45.1,38.0,30.11,WNW,294,5.0,23.0,76,0.01,,---,0.05,VWS V14.00,2013-04-25 16:05:00,
2013-04-25 12:08:00,45.2,38.8,30.11,West,280,12.0,23.0,78,0.01,,---,0.05,VWS V14.00,2013-04-25 16:08:00,
2013-04-25 12:10:00,45.4,39.0,30.12,WNW,291,7.0,23.0,78,0.01,,---,0.05,VWS V14.00,2013-04-25 16:10:00,
2013-04-25 12:11:00,45.5,39.0,30.12,WNW,287,5.0,23.0,78,0.01,,---,0.05,VWS V14.00,2013-04-25 16:11:00,
2013-04-25 12:12:00,45.5,39.0,30.12,West,271,13.0,23.0,78,0.01,,---,0.05,VWS V14.00,2013-04-25 16:12:00,
2013-04-25 12:14:00,45.5,38.7,30.12,WNW,290,12.0,23.0,77,0.01,,---,0.05,VWS V14.00,2013-04-25 16:14:00,
2013-04-25 12:15:00,45.2,38.1,30.12,WNW,300,18.0,23.0,76,0.01,,---,0.05,VWS V14.00,2013-04-25 16:15:00,
2013-04-25 12:16:00,45.1,38.0,30.12,NNW,331,11.0,23.0,76,0.01,,---,0.05,VWS V14.00,2013-04-25 16:16:00,
2013-04-25 12:17:00,45.0,37.9,30.13,NW,313,20.0,23.0,76,0.01,,---,0.05,VWS V14.00,2013-04-25 16:17:00,
2013-04-25 12:19:00,44.6,37.8,30.13,NW,315,12.0,23.0,77,0.01,,---,0.05,VWS V14.00,2013-04-25 16:19:00,
2013-04-25 12:22:00,44.5,37.8,30.13,NW,314,13.0,23.0,77,0.01,,---,0.05,VWS V14.00,2013-04-25 16:22:00,
2013-04-25 12:23:00,44.5,37.8,30.13,NNW,327,15.0,23.0,77,0.01,,---,0.05,VWS V14.00,2013-04-25 16:23:00,
2013-04-25 12:25:00,44.6,38.2,30.13,WNW,289,8.0,23.0,78,0.01,,---,0.05,VWS V14.00,2013-04-25 16:25:00,
2013-04-25 12:26:00,44.6,38.2,30.13,WNW,300,11.0,23.0,78,0.01,,---,0.05,VWS V14.00,2013-04-25 16:26:00,
2013-04-25 12:28:00,44.8,38.4,30.13,WNW,302,6.0,23.0,78,0.01,,---,0.05,VWS V14.00,2013-04-25 16:28:00,
2013-04-25 12:31:00,45.3,38.9,30.13,NW,304,13.0,18.0,78,0.01,,---,0.05,VWS V14.00,2013-04-25 16:31:00,
2013-04-25 12:32:00,45.5,38.7,30.13,West,271,11.0,18.0,77,0.01,,---,0.05,VWS V14.00,2013-04-25 16:32:00,
2013-04-25 12:33:00,45.5,38.7,30.13,WNW,292,15.0,18.0,77,0.01,,---,0.05,VWS V14.00,2013-04-25 16:33:00,
2013-04-25 12:36:00,45.9,38.8,30.13,WNW,302,7.0,18.0,76,0.01,,---,0.05,VWS V14.00,2013-04-25 16:36:00,
2013-04-25 12:38:00,46.4,38.9,30.13,WSW,257,11.0,18.0,75,0.01,,---,0.05,VWS V14.00,2013-04-25 16:38:00,
2013-04-25 12:39:00,46.4,38.9,30.13,WSW,255,7.0,18.0,75,0.01,,---,0.05,VWS V14.00,2013-04-25 16:39:00,
2013-04-25 12:40:00,46.5,39.0,30.13,WNW,288,13.0,18.0,75,0.01,,---,0.05,VWS V14.00,2013-04-25 16:40:00,
2013-04-25 12:41:00,46.7,38.9,30.13,NW,305,5.0,18.0,74,0.01,,---,0.05,VWS V14.00,2013-04-25 16:41:00,
2013-04-25 12:42:00,46.8,39.0,30.13,WNW,292,10.0,18.0,74,0.01,,---,0.05,VWS V14.00,2013-04-25 16:42:00,
2013-04-25 12:45:00,46.8,38.6,30.13,NW,313,7.0,18.0,73,0.01,,---,0.05,VWS V14.00,2013-04-25 16:45:00,
2013-04-25 12:48:00,47.2,39.3,30.13,North,9,3.0,18.0,74,0.01,,---,0.05,VWS V14.00,2013-04-25 16:48:00,
2013-04-25 12:50:00,47.2,38.7,30.14,NW,326,7.0,18.0,72,0.01,,---,0.05,VWS V14.00,2013-04-25 16:50:00,
2013-04-25 12:51:00,47.1,38.5,30.13,WNW,284,7.0,18.0,72,0.01,,---,0.05,VWS V14.00,2013-04-25 16:51:00,
2013-04-25 12:52:00,47.1,38.5,30.14,WNW,292,9.0,18.0,72,0.01,,---,0.05,VWS V14.00,2013-04-25 16:52:00,
2013-04-25 12:53:00,47.1,38.5,30.14,NNW,334,13.0,18.0,72,0.01,,---,0.05,VWS V14.00,2013-04-25 16:53:00,
2013-04-25 12:56:00,46.9,38.0,30.14,NW,324,6.0,18.0,71,0.01,,---,0.05,VWS V14.00,2013-04-25 16:56:00,
2013-04-25 12:57:00,46.9,38.0,30.14,West,274,7.0,18.0,71,0.01,,---,0.05,VWS V14.00,2013-04-25 16:57:00,
2013-04-25 12:59:00,46.9,38.0,30.14,NW,317,4.0,17.0,71,0.00,,---,0.05,VWS V14.00,2013-04-25 16:59:00,
2013-04-25 13:01:00,47.0,37.7,30.14,WNW,299,15.0,21.0,70,0.00,,---,0.05,VWS V14.00,2013-04-25 17:01:00,
2013-04-25 13:02:00,47.0,37.7,30.14,WNW,288,10.0,21.0,70,0.00,,---,0.05,VWS V14.00,2013-04-25 17:02:00,
2013-04-25 13:05:00,47.2,37.6,30.14,NW,307,6.0,21.0,69,0.00,,---,0.05,VWS V14.00,2013-04-25 17:05:00,
2013-04-25 13:06:00,47.2,37.6,30.14,NW,323,11.0,21.0,69,0.00,,---,0.05,VWS V14.00,2013-04-25 17:06:00,
2013-04-25 13:08:00,47.2,37.6,30.14,NNW,335,11.0,21.0,69,0.00,,---,0.05,VWS V14.00,2013-04-25 17:08:00,
2013-04-25 13:09:00,47.1,37.1,30.14,West,279,9.0,21.0,68,0.00,,---,0.05,VWS V14.00,2013-04-25 17:09:00,
2013-04-25 13:10:00,47.1,37.1,30.15,NW,310,10.0,21.0,68,0.00,,---,0.05,VWS V14.00,2013-04-25 17:10:00,
2013-04-25 13:11:00,47.1,37.1,30.14,North,355,5.0,21.0,68,0.00,,---,0.05,VWS V14.00,2013-04-25 17:11:00,
2013-04-25 13:13:00,47.0,36.6,30.15,WNW,295,12.0,21.0,67,0.00,,---,0.05,VWS V14.00,2013-04-25 17:13:00,
2013-04-25 13:14:00,46.9,36.5,30.15,NNW,342,11.0,21.0,67,0.00,,---,0.05,VWS V14.00,2013-04-25 17:14:00,
2013-04-25 13:15:00,46.9,36.5,30.15,NNW,328,12.0,21.0,67,0.00,,---,0.05,VWS V14.00,2013-04-25 17:15:00,
2013-04-25 13:16:00,46.8,36.0,30.15,NW,319,8.0,21.0,66,0.00,,---,0.05,VWS V14.00,2013-04-25 17:16:00,
2013-04-25 13:19:00,46.4,35.7,30.15,NW,322,16.0,21.0,66,0.00,,---,0.05,VWS V14.00,2013-04-25 17:19:00,
2013-04-25 13:20:00,46.2,35.5,30.15,NW,311,14.0,21.0,66,0.00,,---,0.05,VWS V14.00,2013-04-25 17:20:00,
2013-04-25 13:21:00,46.1,35.4,30.15,NW,306,10.0,21.0,66,0.00,,---,0.05,VWS V14.00,2013-04-25 17:21:00,
2013-04-25 13:22:00,46.1,35.4,30.15,WNW,298,12.0,21.0,66,0.00,,---,0.05,VWS V14.00,2013-04-25 17:22:00,
2013-04-25 13:26:00,45.9,35.2,30.15,WNW,295,17.0,24.0,66,0.00,,---,0.05,VWS V14.00,2013-04-25 17:26:00,
2013-04-25 13:27:00,45.9,35.2,30.15,NW,324,12.0,24.0,66,0.00,,---,0.05,VWS V14.00,2013-04-25 17:27:00,
2013-04-25 13:29:00,46.2,35.5,30.15,NW,308,10.0,15.0,66,0.00,,---,0.05,VWS V14.00,2013-04-25 17:29:00,
2013-04-25 13:31:00,46.4,35.3,30.15,NW,311,16.0,23.0,65,0.00,,---,0.05,VWS V14.00,2013-04-25 17:31:00,
2013-04-25 13:32:00,46.5,35.4,30.15,NNW,345,10.0,23.0,65,0.00,,---,0.05,VWS V14.00,2013-04-25 17:32:00,
2013-04-25 13:34:00,46.8,35.3,30.15,West,270,11.0,23.0,64,0.00,,---,0.05,VWS V14.00,2013-04-25 17:34:00,
2013-04-25 13:37:00,47.3,35.4,30.15,NNW,348,9.0,23.0,63,0.00,,---,0.05,VWS V14.00,2013-04-25 17:37:00,
2013-04-25 13:38:00,47.4,35.5,30.15,NW,311,11.0,23.0,63,0.00,,---,0.05,VWS V14.00,2013-04-25 17:38:00,
2013-04-25 13:40:00,47.8,35.8,30.15,WNW,292,13.0,23.0,63,0.00,,---,0.05,VWS V14.00,2013-04-25 17:40:00,
2013-04-25 13:42:00,48.2,35.8,30.16,WNW,288,7.0,23.0,62,0.00,,---,0.05,VWS V14.00,2013-04-25 17:42:00,
2013-04-25 13:44:00,48.5,36.1,30.15,North,355,9.0,23.0,62,0.00,,---,0.05,VWS V14.00,2013-04-25 17:44:00,
2013-04-25 13:46:00,48.2,35.0,30.15,NNE,22,13.0,24.0,60,0.00,,---,0.05,VWS V14.00,2013-04-25 17:46:00,
2013-04-25 13:48:00,47.9,34.7,30.16,NW,310,9.0,24.0,60,0.00,,---,0.05,VWS V14.00,2013-04-25 17:48:00,
2013-04-25 13:49:00,47.6,34.4,30.16,NW,323,18.0,24.0,60,0.00,,---,0.05,VWS V14.00,2013-04-25 17:49:00,
2013-04-25 13:51:00,47.0,34.3,30.16,West,281,14.0,24.0,61,0.00,,---,0.05,VWS V14.00,2013-04-25 17:51:00,
2013-04-25 13:53:00,46.8,34.5,30.16,NNW,346,8.0,24.0,62,0.00,,---,0.05,VWS V14.00,2013-04-25 17:53:00,
2013-04-25 13:54:00,46.9,34.6,30.16,NW,326,13.0,24.0,62,0.00,,---,0.05,VWS V14.00,2013-04-25 17:54:00,
2013-04-25 13:58:00,47.2,34.5,30.16,WNW,289,16.0,24.0,61,0.00,,---,0.05,VWS V14.00,2013-04-25 17:58:00,
2013-04-25 13:59:00,47.5,34.7,30.16,NW,319,9.0,14.0,61,0.00,,---,0.05,VWS V14.00,2013-04-25 17:59:00,
2013-04-25 14:00:00,47.6,34.8,30.16,WNW,289,16.0,17.0,61,0.00,,---,0.05,VWS V14.00,2013-04-25 18:00:00,
2013-04-25 14:02:00,48.0,35.2,30.16,West,269,9.0,21.0,61,0.00,,---,0.05,VWS V14.00,2013-04-25 18:02:00,
2013-04-25 14:03:00,48.1,35.3,30.16,WNW,302,17.0,21.0,61,0.00,,---,0.05,VWS V14.00,2013-04-25 18:03:00,
2013-04-25 14:05:00,48.9,35.6,30.16,WNW,283,20.0,25.0,60,0.00,,---,0.05,VWS V14.00,2013-04-25 18:05:00,
2013-04-25 14:06:00,49.1,35.4,30.16,NW,313,11.0,25.0,59,0.00,,---,0.05,VWS V14.00,2013-04-25 18:06:00,
2013-04-25 14:07:00,49.2,35.5,30.16,WNW,288,19.0,25.0,59,0.00,,---,0.05,VWS V14.00,2013-04-25 18:07:00,
2013-04-25 14:11:00,49.2,34.6,30.16,WNW,293,13.0,25.0,57,0.00,,---,0.05,VWS V14.00,2013-04-25 18:11:00,
2013-04-25 14:12:00,49.2,34.6,30.16,NW,315,14.0,25.0,57,0.00,,---,0.05,VWS V14.00,2013-04-25 18:12:00,
2013-04-25 14:13:00,49.1,35.0,30.16,NW,313,9.0,25.0,58,0.00,,---,0.05,VWS V14.00,2013-04-25 18:13:00,
2013-04-25 14:14:00,49.0,34.9,30.16,NW,325,14.0,25.0,58,0.00,,---,0.05,VWS V14.00,2013-04-25 18:14:00,
2013-04-25 14:17:00,48.3,34.2,30.17,NNW,334,17.0,25.0,58,0.00,,---,0.05,VWS V14.00,2013-04-25 18:17:00,
2013-04-25 14:19:00,48.1,34.0,30.17,NNW,328,16.0,25.0,58,0.00,,---,0.05,VWS V14.00,2013-04-25 18:19:00,
2013-04-25 14:20:00,47.9,33.8,30.17,WSW,251,17.0,25.0,58,0.00,,---,0.05,VWS V14.00,2013-04-25 18:20:00,
2013-04-25 14:24:00,47.7,34.9,30.17,WNW,290,20.0,25.0,61,0.00,,---,0.05,VWS V14.00,2013-04-25 18:24:00,
2013-04-25 14:25:00,47.8,35.4,30.17,WNW,301,14.0,25.0,62,0.00,,---,0.05,VWS V14.00,2013-04-25 18:25:00,
2013-04-25 14:26:00,47.9,35.1,30.17,WNW,303,13.0,25.0,61,0.00,,---,0.05,VWS V14.00,2013-04-25 18:26:00,
2013-04-25 14:28:00,48.3,35.5,30.17,NW,304,15.0,16.0,61,0.00,,---,0.05,VWS V14.00,2013-04-25 18:28:00,
2013-04-25 14:31:00,48.5,35.3,30.17,NW,306,16.0,21.0,60,0.00,,---,0.05,VWS V14.00,2013-04-25 18:31:00,
2013-04-25 14:32:00,48.7,35.5,30.17,NNW,345,16.0,21.0,60,0.00,,---,0.05,VWS V14.00,2013-04-25 18:32:00,
2013-04-25 14:33:00,48.6,35.4,30.17,North,350,15.0,21.0,60,0.00,,---,0.05,VWS V14.00,2013-04-25 18:33:00,
2013-04-25 14:34:00,48.6,34.9,30.17,NNW,334,9.0,21.0,59,0.00,,---,0.05,VWS V14.00,2013-04-25 18:34:00,
2013-04-25 14:39:00,49.1,35.8,30.17,North,355,13.0,21.0,60,0.00,,---,0.05,VWS V14.00,2013-04-25 18:39:00,
2013-04-25 14:40:00,49.1,35.8,30.17,North,5,14.0,21.0,60,0.00,,---,0.05,VWS V14.00,2013-04-25 18:40:00,
2013-04-25 14:44:00,48.8,36.0,30.17,NW,321,14.0,21.0,61,0.00,,---,0.05,VWS V14.00,2013-04-25 18:44:00,
2013-04-25 14:45:00,48.8,35.5,30.17,NW,324,8.0,21.0,60,0.00,,---,0.05,VWS V14.00,2013-04-25 18:45:00,
2013-04-25 14:46:00,48.8,35.5,30.17,NNW,340,19.0,21.0,60,0.00,,---,0.05,VWS V14.00,2013-04-25 18:46:00,
2013-04-25 14:47:00,48.9,35.6,30.17,NW,323,14.0,22.0,60,0.00,,---,0.05,VWS V14.00,2013-04-25 18:47:00,
2013-04-25 14:51:00,49.2,35.5,30.18,NW,315,18.0,22.0,59,0.00,,---,0.05,VWS V14.00,2013-04-25 18:51:00,
2013-04-25 14:52:00,49.1,34.1,30.18,NW,307,15.0,22.0,56,0.00,,---,0.05,VWS V14.00,2013-04-25 18:52:00,
2013-04-25 14:53:00,49.0,34.0,30.18,NW,326,18.0,22.0,56,0.00,,---,0.05,VWS V14.00,2013-04-25 18:53:00,
2013-04-25 14:57:00,48.3,33.3,30.18,NW,304,16.0,22.0,56,0.00,,---,0.05,VWS V14.00,2013-04-25 18:57:00,
2013-04-25 14:58:00,48.3,33.3,30.18,NNW,329,17.0,24.0,56,0.00,,---,0.05,VWS V14.00,2013-04-25 18:58:00,
2013-04-25 15:02:00,48.8,33.8,30.18,NW,317,8.0,21.0,56,0.00,,---,0.05,VWS V14.00,2013-04-25 19:02:00,
2013-04-25 15:03:00,48.9,33.9,30.18,WNW,287,15.0,21.0,56,0.00,,---,0.05,VWS V14.00,2013-04-25 19:03:00,
2013-04-25 15:04:00,49.4,33.9,30.18,West,265,6.0,21.0,55,0.00,,---,0.05,VWS V14.00,2013-04-25 19:04:00,
2013-04-25 15:05:00,49.6,34.1,30.18,WNW,289,13.0,21.0,55,0.00,,---,0.05,VWS V14.00,2013-04-25 19:05:00,
2013-04-25 15:06:00,49.7,34.7,30.18,WNW,288,14.0,21.0,56,0.00,,---,0.05,VWS V14.00,2013-04-25 19:06:00,
2013-04-25 15:09:00,50.4,34.4,30.18,WNW,291,18.0,22.0,54,0.00,,---,0.05,VWS V14.00,2013-04-25 19:09:00,
2013-04-25 15:11:00,50.5,34.0,30.18,NNW,334,15.0,24.0,53,0.00,,---,0.05,VWS V14.00,2013-04-25 19:11:00,
2013-04-25 15:12:00,50.5,34.0,30.18,NNW,341,10.0,24.0,53,0.00,,---,0.05,VWS V14.00,2013-04-25 19:12:00,
2013-04-25 15:14:00,50.6,34.1,30.18,WNW,284,11.0,24.0,53,0.00,,---,0.05,VWS V14.00,2013-04-25 19:14:00,
2013-04-25 15:16:00,51.0,35.0,30.18,WNW,290,15.0,24.0,54,0.00,,---,0.05,VWS V14.00,2013-04-25 19:16:00,
2013-04-25 15:17:00,51.0,34.0,30.18,WNW,295,7.0,24.0,52,0.00,,---,0.05,VWS V14.00,2013-04-25 19:17:00,
2013-04-25 15:18:00,51.1,34.1,30.18,West,277,10.0,24.0,52,0.00,,---,0.05,VWS V14.00,2013-04-25 19:18:00,
2013-04-25 15:19:00,51.1,34.1,30.18,WSW,252,13.0,24.0,52,0.00,,---,0.05,VWS V14.00,2013-04-25 19:19:00,
2013-04-25 15:21:00,51.2,34.2,30.18,WNW,288,4.0,24.0,52,0.00,,---,0.05,VWS V14.00,2013-04-25 19:21:00,
2013-04-25 15:23:00,51.2,34.2,30.18,NNW,343,15.0,24.0,52,0.00,,---,0.05,VWS V14.00,2013-04-25 19:23:00,
2013-04-25 15:24:00,50.9,33.9,30.18,NW,305,11.0,24.0,52,0.00,,---,0.05,VWS V14.00,2013-04-25 19:24:00,
2013-04-25 15:25:00,50.8,33.8,30.18,NW,323,15.0,24.0,52,0.00,,---,0.05,VWS V14.00,2013-04-25 19:25:00,
2013-04-25 15:26:00,50.6,33.6,30.18,NW,307,14.0,24.0,52,0.00,,---,0.05,VWS V14.00,2013-04-25 19:26:00,
2013-04-25 15:28:00,50.1,33.2,30.19,NW,307,7.0,24.0,52,0.00,,---,0.05,VWS V14.00,2013-04-25 19:28:00,
2013-04-25 15:30:00,49.9,33.9,30.19,WNW,300,5.0,15.0,54,0.00,,---,0.05,VWS V14.00,2013-04-25 19:30:00,
2013-04-25 15:32:00,49.9,33.5,30.19,NNW,331,16.0,20.0,53,0.00,,---,0.05,VWS V14.00,2013-04-25 19:32:00,
2013-04-25 15:33:00,49.9,33.0,30.19,NW,325,18.0,20.0,52,0.00,,---,0.05,VWS V14.00,2013-04-25 19:33:00,
2013-04-25 15:34:00,49.7,32.8,30.19,NW,318,15.0,20.0,52,0.00,,---,0.05,VWS V14.00,2013-04-25 19:34:00,
2013-04-25 15:35:00,49.6,32.7,30.19,North,355,19.0,20.0,52,0.00,,---,0.05,VWS V14.00,2013-04-25 19:35:00,
2013-04-25 15:36:00,49.5,32.6,30.19,NNW,345,16.0,20.0,52,0.00,,---,0.05,VWS V14.00,2013-04-25 19:36:00,
2013-04-25 15:38:00,49.6,33.2,30.19,NW,314,15.0,20.0,53,0.00,,---,0.05,VWS V14.00,2013-04-25 19:38:00,
2013-04-25 15:39:00,49.5,32.6,30.19,NW,314,9.0,20.0,52,0.00,,---,0.05,VWS V14.00,2013-04-25 19:39:00,
2013-04-25 15:40:00,49.5,32.6,30.19,NNW,334,9.0,20.0,52,0.00,,---,0.05,VWS V14.00,2013-04-25 19:40:00,
2013-04-25 15:42:00,49.6,33.2,30.19,WNW,298,7.0,20.0,53,0.00,,---,0.05,VWS V14.00,2013-04-25 19:42:00,
2013-04-25 15:43:00,49.9,33.0,30.19,NNW,327,11.0,20.0,52,0.00,,---,0.05,VWS V14.00,2013-04-25 19:43:00,
2013-04-25 15:45:00,50.3,32.9,30.19,NW,319,14.0,20.0,51,0.00,,---,0.05,VWS V14.00,2013-04-25 19:45:00,
2013-04-25 15:47:00,50.4,33.0,30.19,NNW,328,12.0,20.0,51,0.00,,---,0.05,VWS V14.00,2013-04-25 19:47:00,
2013-04-25 15:48:00,50.3,32.4,30.19,NW,312,11.0,21.0,50,0.00,,---,0.05,VWS V14.00,2013-04-25 19:48:00,
2013-04-25 15:50:00,49.9,31.0,30.19,NW,321,17.0,25.0,48,0.00,,---,0.05,VWS V14.00,2013-04-25 19:50:00,
2013-04-25 15:51:00,49.9,31.0,30.19,NW,307,9.0,25.0,48,0.00,,---,0.05,VWS V14.00,2013-04-25 19:51:00,
2013-04-25 15:53:00,49.8,31.4,30.19,West,273,12.0,25.0,49,0.00,,---,0.05,VWS V14.00,2013-04-25 19:53:00,
2013-04-25 15:54:00,49.9,31.5,30.19,NW,325,14.0,25.0,49,0.00,,---,0.05,VWS V14.00,2013-04-25 19:54:00,
2013-04-25 15:56:00,50.0,31.1,30.19,NNW,334,19.0,25.0,48,0.00,,---,0.05,VWS V14.00,2013-04-25 19:56:00,
2013-04-25 15:58:00,49.6,30.2,30.19,NW,309,13.0,25.0,47,0.00,,---,0.05,VWS V14.00,2013-04-25 19:58:00,
2013-04-25 15:59:00,49.6,30.7,30.19,NW,322,13.0,22.0,48,0.00,,---,0.05,VWS V14.00,2013-04-25 19:59:00,
2013-04-25 16:01:00,49.7,30.8,30.19,NW,304,13.0,23.0,48,0.00,,---,0.05,VWS V14.00,2013-04-25 20:01:00,
2013-04-25 16:03:00,49.9,31.0,30.20,NW,323,18.0,23.0,48,0.00,,---,0.05,VWS V14.00,2013-04-25 20:03:00,
2013-04-25 16:04:00,49.8,30.4,30.20,North,355,9.0,23.0,47,0.00,,---,0.05,VWS V14.00,2013-04-25 20:04:00,
2013-04-25 16:05:00,49.7,30.8,30.20,NNW,330,7.0,23.0,48,0.00,,---,0.05,VWS V14.00,2013-04-25 20:05:00,
2013-04-25 16:09:00,49.8,30.9,30.19,North,360,14.0,23.0,48,0.00,,---,0.05,VWS V14.00,2013-04-25 20:09:00,
2013-04-25 16:10:00,49.8,30.4,30.19,NNW,336,19.0,23.0,47,0.00,,---,0.05,VWS V14.00,2013-04-25 20:10:00,
2013-04-25 16:12:00,49.7,30.3,30.20,WNW,288,14.0,23.0,47,0.00,,---,0.05,VWS V14.00,2013-04-25 20:12:00,
2013-04-25 16:15:00,49.9,30.5,30.20,NW,311,12.0,25.0,47,0.00,,---,0.05,VWS V14.00,2013-04-25 20:15:00,
2013-04-25 16:16:00,50.0,30.0,30.20,NW,307,7.0,25.0,46,0.00,,---,0.05,VWS V14.00,2013-04-25 20:16:00,
2013-04-25 16:17:00,49.9,30.0,30.20,WNW,300,14.0,25.0,46,0.00,,---,0.05,VWS V14.00,2013-04-25 20:17:00,
2013-04-25 16:21:00,49.9,30.5,30.20,NNW,327,6.0,25.0,47,0.00,,---,0.05,VWS V14.00,2013-04-25 20:21:00,
2013-04-25 16:22:00,50.1,31.2,30.20,NW,314,15.0,25.0,48,0.00,,---,0.05,VWS V14.00,2013-04-25 20:22:00,
2013-04-25 16:23:00,50.2,30.8,30.20,NW,306,16.0,25.0,47,0.00,,---,0.05,VWS V14.00,2013-04-25 20:23:00,
2013-04-25 16:25:00,50.3,30.9,30.20,NW,311,21.0,25.0,47,0.00,,---,0.05,VWS V14.00,2013-04-25 20:25:00,
2013-04-25 16:27:00,50.4,31.5,30.20,NNW,336,12.0,25.0,48,0.00,,---,0.05,VWS V14.00,2013-04-25 20:27:00,
2013-04-25 16:28:00,50.4,31.5,30.20,NW,322,13.0,25.0,48,0.00,,---,0.05,VWS V14.00,2013-04-25 20:28:00,
2013-04-25 16:30:00,50.5,31.0,30.20,WNW,290,11.0,23.0,47,0.00,,---,0.05,VWS V14.00,2013-04-25 20:30:00,
2013-04-25 16:33:00,50.9,31.9,30.20,NNW,342,10.0,23.0,48,0.00,,---,0.05,VWS V14.00,2013-04-25 20:33:00,
2013-04-25 16:34:00,50.9,31.4,30.20,NW,325,21.0,23.0,47,0.00,,---,0.05,VWS V14.00,2013-04-25 20:34:00,
2013-04-25 16:35:00,50.5,30.5,30.20,NNW,336,17.0,23.0,46,0.00,,---,0.05,VWS V14.00,2013-04-25 20:35:00,
2013-04-25 16:38:00,49.6,30.2,30.20,North,5,12.0,23.0,47,0.00,,---,0.05,VWS V14.00,2013-04-25 20:38:00,
2013-04-25 16:39:00,49.3,29.9,30.20,NNW,333,16.0,23.0,47,0.00,,---,0.05,VWS V14.00,2013-04-25 20:39:00,
2013-04-25 16:41:00,49.4,30.0,30.20,NNW,336,16.0,23.0,47,0.00,,---,0.05,VWS V14.00,2013-04-25 20:41:00,
2013-04-25 16:44:00,49.5,30.6,30.21,NW,306,8.0,23.0,48,0.00,,---,0.05,VWS V14.00,2013-04-25 20:44:00,
2013-04-25 16:45:00,49.5,30.6,30.21,NW,322,3.0,23.0,48,0.00,,---,0.05,VWS V14.00,2013-04-25 20:45:00,
2013-04-25 16:46:00,49.6,30.7,30.21,WNW,293,15.0,23.0,48,0.00,,---,0.05,VWS V14.00,2013-04-25 20:46:00,
2013-04-25 16:48:00,50.1,30.7,30.21,NW,323,9.0,23.0,47,0.00,,---,0.05,VWS V14.00,2013-04-25 20:48:00,
2013-04-25 16:50:00,50.4,31.5,30.21,WNW,286,21.0,23.0,48,0.00,,---,0.05,VWS V14.00,2013-04-25 20:50:00,
2013-04-25 16:51:00,50.6,31.6,30.21,WNW,295,12.0,23.0,48,0.00,,---,0.05,VWS V14.00,2013-04-25 20:51:00,
2013-04-25 16:53:00,50.6,30.6,30.21,NW,307,7.0,23.0,46,0.00,,---,0.05,VWS V14.00,2013-04-25 20:53:00,
2013-04-25 16:54:00,50.6,30.6,30.21,WNW,291,17.0,23.0,46,0.00,,---,0.05,VWS V14.00,2013-04-25 20:54:00,
2013-04-25 16:57:00,50.2,30.8,30.21,NW,306,11.0,23.0,47,0.00,,---,0.05,VWS V14.00,2013-04-25 20:57:00,
2013-04-25 16:58:00,50.1,31.2,30.21,NNW,328,12.0,23.0,48,0.00,,---,0.05,VWS V14.00,2013-04-25 20:58:00,
2013-04-25 16:59:00,49.9,31.5,30.22,NNW,339,14.0,20.0,49,0.00,,---,0.05,VWS V14.00,2013-04-25 20:59:00,
2013-04-25 17:00:00,49.8,30.9,30.22,WNW,295,13.0,20.0,48,0.00,,---,0.05,VWS V14.00,2013-04-25 21:00:00,
2013-04-25 17:01:00,49.8,30.9,30.22,NW,311,13.0,20.0,48,0.00,,---,0.05,VWS V14.00,2013-04-25 21:01:00,
2013-04-25 17:02:00,49.9,31.5,30.22,NW,314,21.0,27.0,49,0.00,,---,0.05,VWS V14.00,2013-04-25 21:02:00,
2013-04-25 17:03:00,50.0,31.6,30.22,NNW,346,12.0,27.0,49,0.00,,---,0.05,VWS V14.00,2013-04-25 21:03:00,
2013-04-25 17:04:00,49.8,31.4,30.22,WNW,299,7.0,27.0,49,0.00,,---,0.05,VWS V14.00,2013-04-25 21:04:00,
2013-04-25 17:06:00,49.6,31.2,30.22,WNW,302,14.0,27.0,49,0.00,,---,0.05,VWS V14.00,2013-04-25 21:06:00,
2013-04-25 17:07:00,49.6,31.2,30.22,West,279,14.0,27.0,49,0.00,,---,0.05,VWS V14.00,2013-04-25 21:07:00,
2013-04-25 17:08:00,49.5,31.6,30.22,West,280,13.0,27.0,50,0.00,,---,0.05,VWS V14.00,2013-04-25 21:08:00,
2013-04-25 17:09:00,49.5,31.6,30.22,WNW,302,21.0,27.0,50,0.00,,---,0.05,VWS V14.00,2013-04-25 21:09:00,
2013-04-25 17:12:00,49.2,30.9,30.22,NW,313,10.0,27.0,49,0.00,,---,0.05,VWS V14.00,2013-04-25 21:12:00,
2013-04-25 17:14:00,49.1,31.3,30.22,NNW,329,14.0,27.0,50,0.00,,---,0.05,VWS V14.00,2013-04-25 21:14:00,
2013-04-25 17:15:00,49.0,31.2,30.22,NNW,333,9.0,27.0,50,0.00,,---,0.05,VWS V14.00,2013-04-25 21:15:00,
2013-04-25 17:18:00,48.8,30.5,30.22,West,272,13.0,27.0,49,0.00,,---,0.05,VWS V14.00,2013-04-25 21:18:00,
2013-04-25 17:20:00,48.7,30.4,30.22,West,281,13.0,27.0,49,0.00,,---,0.05,VWS V14.00,2013-04-25 21:20:00,
2013-04-25 17:22:00,48.7,30.4,30.22,NNW,340,9.0,27.0,49,0.00,,---,0.05,VWS V14.00,2013-04-25 21:22:00,
2013-04-25 17:23:00,48.8,30.5,30.22,NW,308,17.0,27.0,49,0.00,,---,0.05,VWS V14.00,2013-04-25 21:23:00,
2013-04-25 17:25:00,48.6,30.3,30.22,NNW,335,5.0,27.0,49,0.00,,---,0.05,VWS V14.00,2013-04-25 21:25:00,
2013-04-25 17:26:00,48.5,30.2,30.22,NW,305,14.0,27.0,49,0.00,,---,0.05,VWS V14.00,2013-04-25 21:26:00,
2013-04-25 17:27:00,48.4,30.1,30.23,NNW,332,13.0,27.0,49,0.00,,---,0.05,VWS V14.00,2013-04-25 21:27:00,
2013-04-25 17:29:00,48.4,30.6,30.23,NNW,331,15.0,15.0,50,0.00,,---,0.05,VWS V14.00,2013-04-25 21:29:00,
2013-04-25 17:30:00,48.4,30.6,30.23,NW,322,12.0,17.0,50,0.00,,---,0.05,VWS V14.00,2013-04-25 21:30:00,
2013-04-25 17:31:00,48.5,30.7,30.23,NW,315,7.0,20.0,50,0.00,,---,0.05,VWS V14.00,2013-04-25 21:31:00,
2013-04-25 17:32:00,48.6,30.8,30.23,NNW,328,12.0,20.0,50,0.00,,---,0.05,VWS V14.00,2013-04-25 21:32:00,
2013-04-25 17:33:00,48.7,30.9,30.23,NW,324,12.0,20.0,50,0.00,,---,0.05,VWS V14.00,2013-04-25 21:33:00,
2013-04-25 17:36:00,48.7,31.4,30.23,North,350,12.0,20.0,51,0.00,,---,0.05,VWS V14.00,2013-04-25 21:36:00,
2013-04-25 17:37:00,48.7,31.4,30.23,North,355,15.0,20.0,51,0.00,,---,0.05,VWS V14.00,2013-04-25 21:37:00,
2013-04-25 17:38:00,48.7,31.4,30.23,NNW,348,14.0,20.0,51,0.00,,---,0.05,VWS V14.00,2013-04-25 21:38:00,
2013-04-25 17:39:00,48.8,32.0,30.23,NNW,334,15.0,20.0,52,0.00,,---,0.05,VWS V14.00,2013-04-25 21:39:00,
2013-04-25 17:43:00,49.1,32.2,30.23,WNW,298,8.0,20.0,52,0.00,,---,0.05,VWS V14.00,2013-04-25 21:43:00,
2013-04-25 17:44:00,49.3,32.4,30.23,WNW,296,11.0,20.0,52,0.00,,---,0.05,VWS V14.00,2013-04-25 21:44:00,
2013-04-25 17:45:00,49.4,32.5,30.23,NW,315,13.0,20.0,52,0.00,,---,0.05,VWS V14.00,2013-04-25 21:45:00,
2013-04-25 17:46:00,49.5,32.1,30.23,NW,318,15.0,20.0,51,0.00,,---,0.05,VWS V14.00,2013-04-25 21:46:00,
2013-04-25 17:49:00,49.2,31.9,30.23,West,279,16.0,25.0,51,0.00,,---,0.05,VWS V14.00,2013-04-25 21:49:00,
2013-04-25 17:50:00,49.3,32.0,30.23,WNW,296,19.0,25.0,51,0.00,,---,0.05,VWS V14.00,2013-04-25 21:50:00,
2013-04-25 17:51:00,49.4,32.0,30.23,NNW,334,14.0,25.0,51,0.00,,---,0.05,VWS V14.00,2013-04-25 21:51:00,
2013-04-25 17:55:00,49.2,32.8,30.23,WNW,293,15.0,25.0,53,0.00,,---,0.05,VWS V14.00,2013-04-25 21:55:00,
2013-04-25 17:57:00,49.1,32.7,30.23,WNW,298,9.0,25.0,53,0.00,,---,0.05,VWS V14.00,2013-04-25 21:57:00,
2013-04-25 18:01:00,48.8,32.4,30.23,NW,326,12.0,15.0,53,0.00,,---,0.05,VWS V14.00,2013-04-25 22:01:00,
2013-04-25 18:02:00,48.8,32.4,30.23,NNW,339,13.0,15.0,53,0.00,,---,0.05,VWS V14.00,2013-04-25 22:02:00,
2013-04-25 18:03:00,48.8,32.4,30.23,North,350,7.0,15.0,53,0.00,,---,0.05,VWS V14.00,2013-04-25 22:03:00,
2013-04-25 18:05:00,48.5,32.2,30.23,NW,309,17.0,19.0,53,0.00,,---,0.05,VWS V14.00,2013-04-25 22:05:00,
2013-04-25 18:06:00,48.5,32.2,30.23,NW,322,15.0,19.0,53,0.00,,---,0.05,VWS V14.00,2013-04-25 22:06:00,
2013-04-25 18:08:00,48.2,32.8,30.23,WNW,296,7.0,19.0,55,0.00,,---,0.05,VWS V14.00,2013-04-25 22:08:00,
2013-04-25 18:09:00,48.2,32.8,30.23,NW,305,11.0,19.0,55,0.00,,---,0.05,VWS V14.00,2013-04-25 22:09:00,
2013-04-25 18:11:00,48.1,32.7,30.23,NW,313,10.0,19.0,55,0.00,,---,0.05,VWS V14.00,2013-04-25 22:11:00,
2013-04-25 18:12:00,48.0,32.6,30.23,NNW,327,7.0,19.0,55,0.00,,---,0.05,VWS V14.00,2013-04-25 22:12:00,
2013-04-25 18:14:00,48.1,32.7,30.24,NW,324,10.0,19.0,55,0.00,,---,0.05,VWS V14.00,2013-04-25 22:14:00,
2013-04-25 18:15:00,48.1,32.7,30.24,NW,318,10.0,19.0,55,0.00,,---,0.05,VWS V14.00,2013-04-25 22:15:00,
2013-04-25 18:16:00,48.1,32.7,30.24,WNW,302,11.0,19.0,55,0.00,,---,0.05,VWS V14.00,2013-04-25 22:16:00,
2013-04-25 18:17:00,48.2,32.8,30.24,NW,305,5.0,19.0,55,0.00,,---,0.05,VWS V14.00,2013-04-25 22:17:00,
2013-04-25 18:18:00,48.2,32.8,30.24,NW,322,9.0,19.0,55,0.00,,---,0.05,VWS V14.00,2013-04-25 22:18:00,
2013-04-25 18:20:00,48.1,32.3,30.24,NW,322,10.0,19.0,54,0.00,,---,0.05,VWS V14.00,2013-04-25 22:20:00,
2013-04-25 18:22:00,48.1,32.3,30.24,WNW,294,15.0,19.0,54,0.00,,---,0.05,VWS V14.00,2013-04-25 22:22:00,
2013-04-25 18:24:00,48.1,32.3,30.24,West,281,13.0,19.0,54,0.00,,---,0.05,VWS V14.00,2013-04-25 22:24:00,
2013-04-25 18:25:00,48.1,32.7,30.24,NNW,338,10.0,19.0,55,0.00,,---,0.05,VWS V14.00,2013-04-25 22:25:00,
2013-04-25 18:26:00,48.1,32.7,30.24,NW,323,12.0,19.0,55,0.00,,---,0.05,VWS V14.00,2013-04-25 22:26:00,
2013-04-25 18:27:00,48.1,32.7,30.24,WNW,299,12.0,19.0,55,0.00,,---,0.05,VWS V14.00,2013-04-25 22:27:00,
2013-04-25 18:28:00,48.1,33.2,30.24,NW,306,7.0,14.0,56,0.00,,---,0.05,VWS V14.00,2013-04-25 22:28:00,
2013-04-25 18:30:00,48.2,33.3,30.24,NW,304,6.0,14.0,56,0.00,,---,0.05,VWS V14.00,2013-04-25 22:30:00,
2013-04-25 18:31:00,48.3,34.2,30.24,WNW,291,12.0,14.0,58,0.00,,---,0.05,VWS V14.00,2013-04-25 22:31:00,
2013-04-25 18:32:00,48.3,33.3,30.24,NW,311,12.0,14.0,56,0.00,,---,0.05,VWS V14.00,2013-04-25 22:32:00,
2013-04-25 18:33:00,48.2,33.3,30.24,NNW,336,12.0,15.0,56,0.00,,---,0.05,VWS V14.00,2013-04-25 22:33:00,
2013-04-25 18:35:00,48.1,33.2,30.24,NNW,331,10.0,15.0,56,0.00,,---,0.05,VWS V14.00,2013-04-25 22:35:00,
2013-04-25 18:36:00,47.9,33.0,30.24,NW,321,10.0,15.0,56,0.00,,---,0.05,VWS V14.00,2013-04-25 22:36:00,
2013-04-25 18:38:00,47.8,33.3,30.24,NNW,344,6.0,15.0,57,0.00,,---,0.05,VWS V14.00,2013-04-25 22:38:00,
2013-04-25 18:39:00,47.8,33.3,30.24,North,355,6.0,15.0,57,0.00,,---,0.05,VWS V14.00,2013-04-25 22:39:00,
2013-04-25 18:41:00,47.7,33.2,30.24,NNW,329,7.0,15.0,57,0.00,,---,0.05,VWS V14.00,2013-04-25 22:41:00,
2013-04-25 18:43:00,47.7,33.2,30.24,NNW,331,7.0,15.0,57,0.00,,---,0.05,VWS V14.00,2013-04-25 22:43:00,
2013-04-25 18:44:00,47.7,33.2,30.24,NNW,337,4.0,15.0,57,0.00,,---,0.05,VWS V14.00,2013-04-25 22:44:00,
2013-04-25 18:46:00,47.9,33.4,30.24,WNW,283,11.0,16.0,57,0.00,,---,0.05,VWS V14.00,2013-04-25 22:46:00,
2013-04-25 18:49:00,48.2,33.7,30.25,WNW,294,6.0,16.0,57,0.00,,---,0.05,VWS V14.00,2013-04-25 22:49:00,
2013-04-25 18:50:00,48.2,33.7,30.25,WNW,295,5.0,16.0,57,0.00,,---,0.05,VWS V14.00,2013-04-25 22:50:00,
2013-04-25 18:51:00,48.3,33.8,30.24,NNW,339,9.0,16.0,57,0.00,,---,0.05,VWS V14.00,2013-04-25 22:51:00,
2013-04-25 18:54:00,48.4,33.4,30.24,WNW,299,5.0,16.0,56,0.00,,---,0.05,VWS V14.00,2013-04-25 22:54:00,
2013-04-25 18:56:00,48.3,33.3,30.24,WNW,287,7.0,16.0,56,0.00,,---,0.05,VWS V14.00,2013-04-25 22:56:00,
2013-04-25 18:58:00,48.3,33.3,30.25,WNW,296,8.0,16.0,56,0.00,,---,0.05,VWS V14.00,2013-04-25 22:58:00,
2013-04-25 18:59:00,48.4,33.4,30.24,NW,313,11.0,11.0,56,0.00,,---,0.05,VWS V14.00,2013-04-25 22:59:00,
2013-04-25 19:02:00,48.6,33.6,30.24,NW,322,7.0,12.0,56,0.00,,---,0.05,VWS V14.00,2013-04-25 23:02:00,
2013-04-25 19:03:00,48.5,33.5,30.24,NNW,338,7.0,15.0,56,0.00,,---,0.05,VWS V14.00,2013-04-25 23:03:00,
2013-04-25 19:04:00,48.5,33.1,30.25,WNW,298,5.0,15.0,55,0.00,,---,0.05,VWS V14.00,2013-04-25 23:04:00,
2013-04-25 19:07:00,48.4,33.4,30.25,NW,326,3.0,15.0,56,0.00,,---,0.05,VWS V14.00,2013-04-25 23:07:00,
2013-04-25 19:08:00,48.4,33.4,30.25,NNW,334,10.0,15.0,56,0.00,,---,0.05,VWS V14.00,2013-04-25 23:08:00,
2013-04-25 19:09:00,48.4,33.4,30.25,NNW,343,11.0,15.0,56,0.00,,---,0.05,VWS V14.00,2013-04-25 23:09:00,
2013-04-25 19:11:00,48.3,33.3,30.25,NW,321,13.0,15.0,56,0.00,,---,0.05,VWS V14.00,2013-04-25 23:11:00,
2013-04-25 19:14:00,48.2,33.3,30.25,NW,317,8.0,15.0,56,0.00,,---,0.05,VWS V14.00,2013-04-25 23:14:00,
2013-04-25 19:15:00,48.2,32.8,30.25,WNW,292,9.0,15.0,55,0.00,,---,0.05,VWS V14.00,2013-04-25 23:15:00,
2013-04-25 19:17:00,48.2,33.3,30.25,NW,316,4.0,15.0,56,0.00,,---,0.05,VWS V14.00,2013-04-25 23:17:00,
2013-04-25 19:19:00,48.3,33.3,30.25,NW,311,10.0,15.0,56,0.00,,---,0.05,VWS V14.00,2013-04-25 23:19:00,
2013-04-25 19:21:00,48.3,32.9,30.25,NNW,343,5.0,15.0,55,0.00,,---,0.05,VWS V14.00,2013-04-25 23:21:00,
2013-04-25 19:22:00,48.3,32.9,30.25,NW,317,10.0,15.0,55,0.00,,---,0.05,VWS V14.00,2013-04-25 23:22:00,
2013-04-25 19:23:00,48.3,32.9,30.25,NW,315,9.0,15.0,55,0.00,,---,0.05,VWS V14.00,2013-04-25 23:23:00,
2013-04-25 19:25:00,48.3,32.9,30.25,NW,324,5.0,15.0,55,0.00,,---,0.05,VWS V14.00,2013-04-25 23:25:00,
2013-04-25 19:26:00,48.2,32.8,30.25,NW,304,10.0,15.0,55,0.00,,---,0.05,VWS V14.00,2013-04-25 23:26:00,
2013-04-25 19:28:00,48.1,33.2,30.25,WNW,300,6.0,15.0,56,0.00,,---,0.05,VWS V14.00,2013-04-25 23:28:00,
2013-04-25 19:29:00,48.0,33.1,30.25,WNW,292,4.0,7.0,56,0.00,,---,0.05,VWS V14.00,2013-04-25 23:29:00,
2013-04-25 19:30:00,48.0,33.1,30.25,WNW,299,6.0,7.0,56,0.00,,---,0.05,VWS V14.00,2013-04-25 23:30:00,
2013-04-25 19:31:00,47.9,33.0,30.25,NW,312,10.0,14.0,56,0.00,,---,0.05,VWS V14.00,2013-04-25 23:31:00,
2013-04-25 19:34:00,47.9,33.0,30.25,WNW,303,6.0,14.0,56,0.00,,---,0.05,VWS V14.00,2013-04-25 23:34:00,
2013-04-25 19:35:00,47.9,33.0,30.25,WNW,303,3.0,14.0,56,0.00,,---,0.05,VWS V14.00,2013-04-25 23:35:00,
2013-04-25 19:36:00,47.8,32.9,30.26,NNW,331,7.0,14.0,56,0.00,,---,0.05,VWS V14.00,2013-04-25 23:36:00,
2013-04-25 19:39:00,47.7,33.2,30.26,WNW,303,6.0,14.0,57,0.00,,---,0.05,VWS V14.00,2013-04-25 23:39:00,
2013-04-25 19:40:00,47.7,33.2,30.26,NNW,330,8.0,14.0,57,0.00,,---,0.05,VWS V14.00,2013-04-25 23:40:00,
2013-04-25 19:44:00,47.6,33.1,30.26,NW,317,4.0,14.0,57,0.00,,---,0.05,VWS V14.00,2013-04-25 23:44:00,
2013-04-25 19:45:00,47.6,33.1,30.26,NW,309,13.0,14.0,57,0.00,,---,0.05,VWS V14.00,2013-04-25 23:45:00,
2013-04-25 19:46:00,47.6,33.1,30.26,NW,315,7.0,14.0,57,0.00,,---,0.05,VWS V14.00,2013-04-25 23:46:00,
2013-04-25 19:47:00,47.6,33.1,30.26,WNW,289,6.0,14.0,57,0.00,,---,0.05,VWS V14.00,2013-04-25 23:47:00,
2013-04-25 19:49:00,47.6,33.1,30.26,NW,320,6.0,14.0,57,0.00,,---,0.05,VWS V14.00,2013-04-25 23:49:00,
2013-04-25 19:50:00,47.5,33.0,30.26,WNW,302,10.0,14.0,57,0.00,,---,0.05,VWS V14.00,2013-04-25 23:50:00,
2013-04-25 19:51:00,47.5,33.0,30.26,NW,306,7.0,14.0,57,0.00,,---,0.05,VWS V14.00,2013-04-25 23:51:00,
2013-04-25 19:52:00,47.4,33.4,30.26,NW,313,5.0,14.0,58,0.00,,---,0.05,VWS V14.00,2013-04-25 23:52:00,
2013-04-25 19:54:00,47.4,33.4,30.26,NW,321,5.0,14.0,58,0.00,,---,0.05,VWS V14.00,2013-04-25 23:54:00,
2013-04-25 19:55:00,47.4,33.4,30.26,NNW,338,3.0,14.0,58,0.00,,---,0.05,VWS V14.00,2013-04-25 23:55:00,
2013-04-25 19:58:00,47.3,33.3,30.26,NW,304,5.0,14.0,58,0.00,,---,0.05,VWS V14.00,2013-04-25 23:58:00,
2013-04-25 19:59:00,47.3,33.3,30.26,WNW,299,7.0,7.0,58,0.00,,---,0.05,VWS V14.00,2013-04-25 23:59:00,
2013-04-25 20:00:00,47.3,33.3,30.26,WNW,289,4.0,9.0,58,0.00,,---,0.05,VWS V14.00,2013-04-26 00:00:00,
2013-04-25 20:03:00,47.2,33.2,30.27,NW,317,4.0,9.0,58,0.00,,---,0.05,VWS V14.00,2013-04-26 00:03:00,
2013-04-25 20:04:00,47.2,33.2,30.26,WNW,292,2.0,9.0,58,0.00,,---,0.05,VWS V14.00,2013-04-26 00:04:00,
2013-04-25 20:05:00,47.1,33.1,30.27,WNW,293,4.0,9.0,58,0.00,,---,0.05,VWS V14.00,2013-04-26 00:05:00,
2013-04-25 20:06:00,47.1,33.1,30.27,WNW,292,4.0,9.0,58,0.00,,---,0.05,VWS V14.00,2013-04-26 00:06:00,
2013-04-25 20:08:00,47.1,33.1,30.27,WNW,294,2.0,9.0,58,0.00,,---,0.05,VWS V14.00,2013-04-26 00:08:00,
2013-04-25 20:11:00,47.0,33.4,30.27,WNW,294,2.0,9.0,59,0.00,,---,0.05,VWS V14.00,2013-04-26 00:11:00,
2013-04-25 20:12:00,47.0,33.4,30.27,WNW,294,3.0,9.0,59,0.00,,---,0.05,VWS V14.00,2013-04-26 00:12:00,
2013-04-25 20:13:00,47.0,33.4,30.27,WNW,294,3.0,9.0,59,0.00,,---,0.05,VWS V14.00,2013-04-26 00:13:00,
2013-04-25 20:14:00,47.0,33.4,30.27,WNW,294,2.0,9.0,59,0.00,,---,0.05,VWS V14.00,2013-04-26 00:14:00,
2013-04-25 20:16:00,46.9,33.3,30.27,WNW,294,3.0,9.0,59,0.00,,---,0.05,VWS V14.00,2013-04-26 00:16:00,
2013-04-25 20:17:00,46.9,33.3,30.27,WNW,294,4.0,9.0,59,0.00,,---,0.05,VWS V14.00,2013-04-26 00:17:00,
2013-04-25 20:19:00,46.8,33.2,30.27,WNW,294,3.0,9.0,59,0.00,,---,0.05,VWS V14.00,2013-04-26 00:19:00,
2013-04-25 20:20:00,46.8,33.2,30.27,WNW,294,3.0,9.0,59,0.00,,---,0.05,VWS V14.00,2013-04-26 00:20:00,
2013-04-25 20:23:00,46.8,33.7,30.27,WNW,294,2.0,9.0,60,0.00,,---,0.05,VWS V14.00,2013-04-26 00:23:00,
2013-04-25 20:25:00,46.7,33.6,30.27,WNW,294,1.0,9.0,60,0.00,,---,0.05,VWS V14.00,2013-04-26 00:25:00,
2013-04-25 20:28:00,46.6,33.5,30.27,WNW,294,5.0,9.0,60,0.00,,---,0.05,VWS V14.00,2013-04-26 00:28:00,
2013-04-25 20:29:00,46.6,33.5,30.27,WNW,294,3.0,5.0,60,0.00,,---,0.05,VWS V14.00,2013-04-26 00:29:00,
2013-04-25 20:31:00,46.5,33.4,30.27,WNW,294,2.0,5.0,60,0.00,,---,0.05,VWS V14.00,2013-04-26 00:31:00,
2013-04-25 20:33:00,46.5,33.4,30.27,WNW,294,4.0,6.0,60,0.00,,---,0.05,VWS V14.00,2013-04-26 00:33:00,
2013-04-25 20:35:00,46.4,33.3,30.28,WNW,294,3.0,6.0,60,0.00,,---,0.05,VWS V14.00,2013-04-26 00:35:00,
2013-04-25 20:36:00,46.4,33.3,30.28,WNW,294,3.0,6.0,60,0.00,,---,0.05,VWS V14.00,2013-04-26 00:36:00,
2013-04-25 20:39:00,46.3,33.6,30.28,WNW,294,5.0,6.0,61,0.00,,---,0.05,VWS V14.00,2013-04-26 00:39:00,
2013-04-25 20:41:00,46.3,33.6,30.28,WNW,290,2.0,6.0,61,0.00,,---,0.05,VWS V14.00,2013-04-26 00:41:00,
2013-04-25 20:42:00,46.3,33.6,30.28,WNW,290,2.0,6.0,61,0.00,,---,0.05,VWS V14.00,2013-04-26 00:42:00,
2013-04-25 20:43:00,46.2,33.5,30.28,WNW,291,3.0,6.0,61,0.00,,---,0.05,VWS V14.00,2013-04-26 00:43:00,
2013-04-25 20:45:00,46.2,33.5,30.28,WNW,291,5.0,6.0,61,0.00,,---,0.05,VWS V14.00,2013-04-26 00:45:00,
2013-04-25 20:47:00,46.1,33.4,30.28,WNW,295,4.0,7.0,61,0.00,,---,0.05,VWS V14.00,2013-04-26 00:47:00,
2013-04-25 20:49:00,46.0,33.3,30.28,WNW,290,5.0,7.0,61,0.00,,---,0.05,VWS V14.00,2013-04-26 00:49:00,
2013-04-25 20:50:00,46.0,33.3,30.28,WNW,290,3.0,7.0,61,0.00,,---,0.05,VWS V14.00,2013-04-26 00:50:00,
2013-04-25 20:51:00,46.0,33.3,30.28,WNW,290,2.0,7.0,61,0.00,,---,0.05,VWS V14.00,2013-04-26 00:51:00,
2013-04-25 20:53:00,46.0,33.3,30.28,WNW,290,4.0,7.0,61,0.00,,---,0.05,VWS V14.00,2013-04-26 00:53:00,
2013-04-25 20:54:00,45.9,33.2,30.28,WNW,290,2.0,7.0,61,0.00,,---,0.05,VWS V14.00,2013-04-26 00:54:00,
2013-04-25 20:55:00,45.9,33.2,30.28,WNW,289,3.0,7.0,61,0.00,,---,0.05,VWS V14.00,2013-04-26 00:55:00,
2013-04-25 20:56:00,45.9,33.2,30.28,WNW,289,2.0,7.0,61,0.00,,---,0.05,VWS V14.00,2013-04-26 00:56:00,
2013-04-25 20:58:00,45.8,33.1,30.28,WNW,290,2.0,7.0,61,0.00,,---,0.05,VWS V14.00,2013-04-26 00:58:00,
2013-04-25 20:59:00,45.8,33.1,30.28,WNW,290,2.0,4.0,61,0.00,,---,0.05,VWS V14.00,2013-04-26 00:59:00,
2013-04-25 21:02:00,45.6,32.9,30.28,WNW,290,1.0,5.0,61,0.00,,---,0.05,VWS V14.00,2013-04-26 01:02:00,
2013-04-25 21:03:00,45.6,33.3,30.28,WNW,290,3.0,5.0,62,0.00,,---,0.05,VWS V14.00,2013-04-26 01:03:00,
2013-04-25 21:06:00,45.5,32.8,30.28,WNW,290,2.0,5.0,61,0.00,,---,0.05,VWS V14.00,2013-04-26 01:06:00,
2013-04-25 21:07:00,45.5,33.2,30.28,WNW,290,1.0,5.0,62,0.00,,---,0.05,VWS V14.00,2013-04-26 01:07:00,
2013-04-25 21:08:00,45.4,33.2,30.28,WNW,290,0.0,5.0,62,0.00,,---,0.05,VWS V14.00,2013-04-26 01:08:00,
2013-04-25 21:09:00,45.4,33.2,30.28,WNW,290,2.0,5.0,62,0.00,,---,0.05,VWS V14.00,2013-04-26 01:09:00,
2013-04-25 21:12:00,45.2,33.0,30.28,WNW,290,0.0,5.0,62,0.00,,---,0.05,VWS V14.00,2013-04-26 01:12:00,
2013-04-25 21:13:00,45.2,33.0,30.28,WNW,290,0.0,5.0,62,0.00,,---,0.05,VWS V14.00,2013-04-26 01:13:00,
2013-04-25 21:14:00,45.1,32.9,30.28,WNW,290,0.0,5.0,62,0.00,,---,0.05,VWS V14.00,2013-04-26 01:14:00,
2013-04-25 21:15:00,45.1,32.9,30.28,WNW,290,0.0,5.0,62,0.00,,---,0.05,VWS V14.00,2013-04-26 01:15:00,
2013-04-25 21:18:00,45.0,32.8,30.28,WNW,290,0.0,5.0,62,0.00,,---,0.05,VWS V14.00,2013-04-26 01:18:00,
2013-04-25 21:19:00,45.0,33.2,30.28,WNW,290,0.0,5.0,63,0.00,,---,0.05,VWS V14.00,2013-04-26 01:19:00,
2013-04-25 21:20:00,45.0,33.2,30.28,WNW,290,0.0,5.0,63,0.00,,---,0.05,VWS V14.00,2013-04-26 01:20:00,
2013-04-25 21:22:00,44.9,33.1,30.28,WNW,290,0.0,5.0,63,0.00,,---,0.05,VWS V14.00,2013-04-26 01:22:00,
2013-04-25 21:23:00,44.8,33.0,30.28,WNW,290,0.0,5.0,63,0.00,,---,0.05,VWS V14.00,2013-04-26 01:23:00,
2013-04-25 21:24:00,44.8,33.0,30.28,WNW,290,0.0,5.0,63,0.00,,---,0.05,VWS V14.00,2013-04-26 01:24:00,
2013-04-25 21:25:00,44.7,32.9,30.28,WNW,290,0.0,5.0,63,0.00,,---,0.05,VWS V14.00,2013-04-26 01:25:00,
2013-04-25 21:26:00,44.7,32.9,30.28,WNW,290,0.0,5.0,63,0.00,,---,0.05,VWS V14.00,2013-04-26 01:26:00,
2013-04-25 21:28:00,44.7,32.9,30.28,WNW,290,0.0,5.0,63,0.00,,---,0.05,VWS V14.00,2013-04-26 01:28:00,
2013-04-25 21:31:00,44.6,32.8,30.28,WNW,290,0.0,0.0,63,0.00,,---,0.05,VWS V14.00,2013-04-26 01:31:00,
2013-04-25 21:32:00,44.6,32.8,30.28,WNW,290,0.0,0.0,63,0.00,,---,0.05,VWS V14.00,2013-04-26 01:32:00,
2013-04-25 21:33:00,44.5,32.7,30.28,WNW,290,0.0,0.0,63,0.00,,---,0.05,VWS V14.00,2013-04-26 01:33:00,
2013-04-25 21:34:00,44.5,33.1,30.28,WNW,290,0.0,0.0,64,0.00,,---,0.05,VWS V14.00,2013-04-26 01:34:00,
2013-04-25 21:38:00,44.3,32.9,30.28,WNW,290,0.0,0.0,64,0.00,,---,0.05,VWS V14.00,2013-04-26 01:38:00,
2013-04-25 21:39:00,44.3,32.9,30.28,WNW,290,0.0,0.0,64,0.00,,---,0.05,VWS V14.00,2013-04-26 01:39:00,
2013-04-25 21:40:00,44.3,32.9,30.29,WNW,290,0.0,0.0,64,0.00,,---,0.05,VWS V14.00,2013-04-26 01:40:00,
2013-04-25 21:41:00,44.2,32.8,30.29,WNW,290,0.0,0.0,64,0.00,,---,0.05,VWS V14.00,2013-04-26 01:41:00,
2013-04-25 21:42:00,44.2,32.8,30.29,WNW,290,0.0,0.0,64,0.00,,---,0.05,VWS V14.00,2013-04-26 01:42:00,
2013-04-25 21:44:00,44.1,33.1,30.29,WNW,290,0.0,0.0,65,0.00,,---,0.05,VWS V14.00,2013-04-26 01:44:00,
2013-04-25 21:46:00,44.0,33.0,30.29,WNW,290,0.0,0.0,65,0.00,,---,0.05,VWS V14.00,2013-04-26 01:46:00,
2013-04-25 21:48:00,43.9,32.9,30.29,WNW,290,0.0,0.0,65,0.00,,---,0.05,VWS V14.00,2013-04-26 01:48:00,
2013-04-25 21:49:00,43.9,32.9,30.29,WNW,290,0.0,0.0,65,0.00,,---,0.05,VWS V14.00,2013-04-26 01:49:00,
2013-04-25 21:50:00,43.9,32.9,30.29,WNW,290,0.0,0.0,65,0.00,,---,0.05,VWS V14.00,2013-04-26 01:50:00,
2013-04-25 21:52:00,43.8,32.8,30.29,WNW,290,0.0,0.0,65,0.00,,---,0.05,VWS V14.00,2013-04-26 01:52:00,
2013-04-25 21:54:00,43.8,32.8,30.29,WNW,290,0.0,0.0,65,0.00,,---,0.05,VWS V14.00,2013-04-26 01:54:00,
2013-04-25 21:55:00,43.8,33.2,30.29,WNW,290,0.0,0.0,66,0.00,,---,0.05,VWS V14.00,2013-04-26 01:55:00,
2013-04-25 21:58:00,43.7,33.1,30.29,WNW,290,0.0,0.0,66,0.00,,---,0.05,VWS V14.00,2013-04-26 01:58:00,
2013-04-25 22:00:00,43.7,33.1,30.29,WNW,290,0.0,0.0,66,0.00,,---,0.05,VWS V14.00,2013-04-26 02:00:00,
2013-04-25 22:01:00,43.7,33.1,30.29,WNW,290,0.0,0.0,66,0.00,,---,0.05,VWS V14.00,2013-04-26 02:01:00,
2013-04-25 22:03:00,43.7,33.1,30.29,WNW,290,0.0,0.0,66,0.00,,---,0.05,VWS V14.00,2013-04-26 02:03:00,
2013-04-25 22:05:00,43.7,33.1,30.29,WNW,290,0.0,0.0,66,0.00,,---,0.05,VWS V14.00,2013-04-26 02:05:00,
2013-04-25 22:06:00,43.7,33.1,30.29,WNW,290,0.0,0.0,66,0.00,,---,0.05,VWS V14.00,2013-04-26 02:06:00,
2013-04-25 22:07:00,43.7,33.1,30.30,WNW,290,0.0,0.0,66,0.00,,---,0.05,VWS V14.00,2013-04-26 02:07:00,
2013-04-25 22:09:00,43.6,33.0,30.30,WNW,290,0.0,0.0,66,0.00,,---,0.05,VWS V14.00,2013-04-26 02:09:00,
2013-04-25 22:12:00,43.5,32.9,30.30,WNW,290,0.0,0.0,66,0.00,,---,0.05,VWS V14.00,2013-04-26 02:12:00,
2013-04-25 22:14:00,43.5,32.9,30.30,WNW,290,0.0,0.0,66,0.00,,---,0.05,VWS V14.00,2013-04-26 02:14:00,
2013-04-25 22:16:00,43.4,32.8,30.30,WNW,290,0.0,0.0,66,0.00,,---,0.05,VWS V14.00,2013-04-26 02:16:00,
2013-04-25 22:18:00,43.3,32.7,30.30,WNW,290,0.0,0.0,66,0.00,,---,0.05,VWS V14.00,2013-04-26 02:18:00,
2013-04-25 22:20:00,43.2,33.0,30.30,WNW,290,0.0,0.0,67,0.00,,---,0.05,VWS V14.00,2013-04-26 02:20:00,
2013-04-25 22:22:00,43.1,32.9,30.30,WNW,290,0.0,0.0,67,0.00,,---,0.05,VWS V14.00,2013-04-26 02:22:00,
2013-04-25 22:24:00,42.9,33.1,30.30,WNW,290,0.0,0.0,68,0.00,,---,0.05,VWS V14.00,2013-04-26 02:24:00,
2013-04-25 22:25:00,42.8,33.0,30.30,WNW,290,0.0,0.0,68,0.00,,---,0.05,VWS V14.00,2013-04-26 02:25:00,
2013-04-25 22:26:00,42.8,33.0,30.30,WNW,290,0.0,0.0,68,0.00,,---,0.05,VWS V14.00,2013-04-26 02:26:00,
2013-04-25 22:30:00,42.4,34.0,30.30,WNW,290,0.0,0.0,72,0.00,,---,0.05,VWS V14.00,2013-04-26 02:30:00,
2013-04-25 22:31:00,42.3,32.9,30.31,WNW,290,0.0,0.0,69,0.00,,---,0.05,VWS V14.00,2013-04-26 02:31:00,
2013-04-25 22:32:00,42.3,32.9,30.31,WNW,290,0.0,0.0,69,0.00,,---,0.05,VWS V14.00,2013-04-26 02:32:00,
2013-04-25 22:34:00,42.1,32.7,30.31,WNW,290,0.0,0.0,69,0.00,,---,0.05,VWS V14.00,2013-04-26 02:34:00,
2013-04-25 22:35:00,42.0,32.6,30.31,WNW,290,0.0,0.0,69,0.00,,---,0.05,VWS V14.00,2013-04-26 02:35:00,
2013-04-25 22:38:00,41.8,32.8,30.31,WNW,290,0.0,0.0,70,0.00,,---,0.05,VWS V14.00,2013-04-26 02:38:00,
2013-04-25 22:39:00,41.7,32.7,30.31,WNW,290,0.0,0.0,70,0.00,,---,0.05,VWS V14.00,2013-04-26 02:39:00,
2013-04-25 22:41:00,41.7,33.0,30.31,WNW,290,0.0,0.0,71,0.00,,---,0.05,VWS V14.00,2013-04-26 02:41:00,
2013-04-25 22:42:00,41.7,33.0,30.31,WNW,290,0.0,0.0,71,0.00,,---,0.05,VWS V14.00,2013-04-26 02:42:00,
2013-04-25 22:43:00,41.7,33.0,30.31,WNW,290,0.0,0.0,71,0.00,,---,0.05,VWS V14.00,2013-04-26 02:43:00,
2013-04-25 22:46:00,41.7,33.0,30.31,WNW,290,0.0,0.0,71,0.00,,---,0.05,VWS V14.00,2013-04-26 02:46:00,
2013-04-25 22:48:00,41.7,33.0,30.31,WNW,290,0.0,0.0,71,0.00,,---,0.05,VWS V14.00,2013-04-26 02:48:00,
2013-04-25 22:49:00,41.7,33.0,30.31,WNW,290,0.0,0.0,71,0.00,,---,0.05,VWS V14.00,2013-04-26 02:49:00,
2013-04-25 22:52:00,41.7,33.3,30.31,WNW,290,0.0,0.0,72,0.00,,---,0.05,VWS V14.00,2013-04-26 02:52:00,
2013-04-25 22:53:00,41.7,33.3,30.31,WNW,290,0.0,0.0,72,0.00,,---,0.05,VWS V14.00,2013-04-26 02:53:00,
2013-04-25 22:54:00,41.7,33.3,30.31,WNW,290,0.0,0.0,72,0.00,,---,0.05,VWS V14.00,2013-04-26 02:54:00,
2013-04-25 22:58:00,41.6,33.3,30.31,WNW,290,0.0,0.0,72,0.00,,---,0.05,VWS V14.00,2013-04-26 02:58:00,
2013-04-25 22:59:00,41.5,33.5,30.31,WNW,290,0.0,0.0,73,0.00,,---,0.05,VWS V14.00,2013-04-26 02:59:00,
2013-04-25 23:00:00,41.5,33.5,30.31,WNW,290,0.0,0.0,73,0.00,,---,0.05,VWS V14.00,2013-04-26 03:00:00,
2013-04-25 23:04:00,41.4,33.4,30.31,WNW,290,0.0,0.0,73,0.00,,---,0.05,VWS V14.00,2013-04-26 03:04:00,
2013-04-25 23:05:00,41.3,33.3,30.31,WNW,290,0.0,0.0,73,0.00,,---,0.05,VWS V14.00,2013-04-26 03:05:00,
2013-04-25 23:06:00,41.3,33.3,30.31,WNW,290,0.0,0.0,73,0.00,,---,0.05,VWS V14.00,2013-04-26 03:06:00,
2013-04-25 23:07:00,41.3,33.7,30.31,WNW,290,0.0,0.0,74,0.00,,---,0.05,VWS V14.00,2013-04-26 03:07:00,
2013-04-25 23:10:00,41.3,33.7,30.31,WNW,290,0.0,0.0,74,0.00,,---,0.05,VWS V14.00,2013-04-26 03:10:00,
2013-04-25 23:11:00,41.3,34.0,30.31,WNW,290,0.0,0.0,75,0.00,,---,0.05,VWS V14.00,2013-04-26 03:11:00,
2013-04-25 23:12:00,41.3,34.0,30.31,WNW,290,0.0,0.0,75,0.00,,---,0.05,VWS V14.00,2013-04-26 03:12:00,
2013-04-25 23:15:00,41.2,33.9,30.31,WNW,290,0.0,0.0,75,0.00,,---,0.05,VWS V14.00,2013-04-26 03:15:00,
2013-04-25 23:16:00,41.2,33.9,30.31,WNW,290,0.0,0.0,75,0.00,,---,0.05,VWS V14.00,2013-04-26 03:16:00,
2013-04-25 23:17:00,41.1,33.8,30.31,WNW,290,0.0,0.0,75,0.00,,---,0.05,VWS V14.00,2013-04-26 03:17:00,
2013-04-25 23:18:00,41.1,33.8,30.31,WNW,290,0.0,0.0,75,0.00,,---,0.05,VWS V14.00,2013-04-26 03:18:00,
2013-04-25 23:21:00,41.1,33.8,30.31,WNW,290,0.0,0.0,75,0.00,,---,0.05,VWS V14.00,2013-04-26 03:21:00,
2013-04-25 23:22:00,41.1,33.8,30.31,WNW,290,0.0,0.0,75,0.00,,---,0.05,VWS V14.00,2013-04-26 03:22:00,
2013-04-25 23:24:00,41.0,33.7,30.31,WNW,290,0.0,0.0,75,0.00,,---,0.05,VWS V14.00,2013-04-26 03:24:00,
2013-04-25 23:26:00,41.0,33.7,30.31,WNW,290,0.0,0.0,75,0.00,,---,0.05,VWS V14.00,2013-04-26 03:26:00,
2013-04-25 23:27:00,40.9,33.6,30.31,WNW,290,0.0,0.0,75,0.00,,---,0.05,VWS V14.00,2013-04-26 03:27:00,
2013-04-25 23:29:00,40.9,33.6,30.31,WNW,290,0.0,0.0,75,0.00,,---,0.05,VWS V14.00,2013-04-26 03:29:00,
2013-04-25 23:30:00,40.9,33.6,30.31,WNW,290,0.0,0.0,75,0.00,,---,0.05,VWS V14.00,2013-04-26 03:30:00,
2013-04-25 23:31:00,40.9,33.6,30.31,WNW,290,0.0,0.0,75,0.00,,---,0.05,VWS V14.00,2013-04-26 03:31:00,
2013-04-25 23:35:00,40.8,33.5,30.31,WNW,290,0.0,0.0,75,0.00,,---,0.05,VWS V14.00,2013-04-26 03:35:00,
2013-04-25 23:36:00,40.8,33.5,30.31,WNW,290,0.0,0.0,75,0.00,,---,0.05,VWS V14.00,2013-04-26 03:36:00,
2013-04-25 23:41:00,40.6,33.3,30.32,WNW,290,0.0,0.0,75,0.00,,---,0.05,VWS V14.00,2013-04-26 03:41:00,
2013-04-25 23:42:00,40.5,33.2,30.32,WNW,290,0.0,0.0,75,0.00,,---,0.05,VWS V14.00,2013-04-26 03:42:00,
2013-04-25 23:45:00,40.4,33.1,30.32,WNW,290,0.0,0.0,75,0.00,,---,0.05,VWS V14.00,2013-04-26 03:45:00,
2013-04-25 23:47:00,40.4,33.5,30.32,WNW,290,0.0,0.0,76,0.00,,---,0.05,VWS V14.00,2013-04-26 03:47:00,
2013-04-25 23:48:00,40.4,33.5,30.32,WNW,290,0.0,0.0,76,0.00,,---,0.05,VWS V14.00,2013-04-26 03:48:00,
2013-04-25 23:49:00,40.4,33.5,30.32,WNW,290,0.0,0.0,76,0.00,,---,0.05,VWS V14.00,2013-04-26 03:49:00,
2013-04-25 23:51:00,40.3,33.3,30.32,WNW,290,0.0,0.0,76,0.00,,---,0.05,VWS V14.00,2013-04-26 03:51:00,
2013-04-25 23:52:00,40.3,33.3,30.32,WNW,290,0.0,0.0,76,0.00,,---,0.05,VWS V14.00,2013-04-26 03:52:00,
2013-04-25 23:54:00,40.3,33.7,30.32,WNW,290,0.0,0.0,77,0.00,,---,0.05,VWS V14.00,2013-04-26 03:54:00,
2013-04-25 23:57:00,40.3,33.7,30.32,WNW,290,0.0,0.0,77,0.00,,---,0.05,VWS V14.00,2013-04-26 03:57:00,
2013-04-25 23:58:00,40.3,33.7,30.32,WNW,290,0.0,0.0,77,0.00,,---,0.05,VWS V14.00,2013-04-26 03:58:00,